GFSSW_925_thetae_000.txt.gz
Theta_e
303 301 301 302 302 302 304 305 305 305 306 306 306 307 307 307 308 315 317 315 317 319 322 329 330 331 332 333 331 331 333 334 333 332 331 331 331 331 330 328 328 327 325 326 327
306 305 303 302 302 300 301 302 303 305 306 306 306 306 306 307 311 315 316 318 317 318 323 330 333 333 333 331 331 331 333 332 332 331 329 329 329 329 329 329 329 327 325 325 325
308 308 307 306 304 303 301 300 301 302 304 306 306 306 306 307 318 317 320 318 316 317 320 327 330 333 332 331 331 331 332 331 332 331 328 327 327 328 328 329 328 326 326 326 324
308 308 308 308 307 306 305 303 301 300 301 304 306 307 307 312 315 322 317 317 317 318 320 322 327 332 332 332 331 331 331 331 331 330 327 325 326 329 328 328 327 326 325 326 327
309 309 308 308 308 308 308 307 306 302 299 299 303 306 311 315 315 316 317 317 315 317 319 321 325 330 331 331 331 332 331 331 330 328 327 326 327 329 327 327 327 325 325 325 327
308 308 309 308 308 308 308 307 307 306 302 299 299 303 315 314 313 314 316 324 320 318 318 320 322 325 327 328 329 331 331 329 329 328 327 327 328 328 328 327 326 325 325 325 326
305 306 308 309 308 308 308 307 307 306 305 300 299 311 314 314 314 316 316 319 323 321 319 319 321 324 326 328 329 329 330 328 328 328 327 328 328 328 328 327 327 327 327 327 326
304 304 306 308 309 309 308 307 307 307 306 303 302 311 314 313 314 313 314 316 316 318 322 323 322 323 325 327 328 328 329 329 328 329 328 328 329 328 328 329 329 327 327 327 328
305 304 304 304 306 306 307 308 308 307 308 307 311 311 312 313 314 314 316 316 321 320 321 321 321 324 323 325 328 328 330 328 329 329 329 329 329 328 328 329 331 329 329 327 328
304 305 304 304 304 305 306 307 308 309 311 313 310 315 318 318 315 317 315 316 316 318 318 321 321 324 325 325 328 329 328 328 329 330 329 329 329 329 329 329 331 331 330 330 329
303 303 304 303 304 304 306 311 315 318 312 317 316 314 317 319 317 316 317 316 317 317 318 321 323 325 326 326 325 327 327 329 331 330 330 331 333 331 329 329 330 331 331 331 331
305 302 303 303 303 303 306 311 315 313 316 316 317 316 315 316 317 316 317 317 316 316 317 320 325 323 324 325 324 325 328 329 328 328 328 328 330 330 329 330 330 329 329 331 332
306 305 298 302 303 304 306 309 311 312 314 314 318 320 319 317 318 318 316 317 317 316 317 319 322 323 325 325 325 327 328 329 329 328 328 329 331 331 329 329 328 329 328 329 333
305 305 303 300 305 309 312 311 312 310 313 313 315 316 319 320 319 318 318 318 318 317 317 318 320 324 325 325 326 329 327 328 328 328 329 329 334 332 329 330 328 326 329 330 333
305 304 305 300 306 309 311 310 309 310 319 318 316 318 317 321 319 319 318 319 320 318 317 318 321 322 327 326 326 327 327 328 328 329 328 328 331 328 330 330 328 325 326 331 333
305 304 305 301 304 306 308 311 309 314 315 318 321 318 318 319 320 320 319 319 319 319 319 318 320 323 325 327 326 326 327 327 327 327 333 329 330 329 329 327 325 325 325 331 332
304 304 305 304 305 308 309 311 313 315 314 318 321 319 319 319 319 320 319 319 321 321 323 319 319 322 325 326 327 326 329 330 333 331 333 328 330 331 329 326 325 324 327 333 333
304 305 305 306 303 306 308 313 315 311 313 319 321 321 320 321 320 320 319 319 321 321 321 322 321 321 324 326 326 328 330 328 337 333 331 331 332 328 326 326 325 325 328 334 332
304 306 306 306 304 304 309 313 312 311 313 314 317 318 322 322 321 321 322 321 321 323 324 324 322 322 323 325 327 328 328 326 328 328 330 329 330 330 328 325 325 327 333 335 333
306 306 306 306 304 306 310 310 311 310 310 312 314 318 321 323 322 322 323 322 321 322 325 325 327 324 323 326 327 329 326 327 327 332 337 329 330 329 328 327 329 332 334 337 333
306 306 305 306 305 308 311 308 309 309 310 310 312 315 317 319 322 322 322 322 321 322 324 326 332 328 326 328 328 328 328 327 329 328 333 334 330 330 331 333 337 334 336 336 333
304 307 307 305 308 307 310 309 308 308 309 310 311 312 315 318 320 323 324 324 322 323 325 326 329 332 328 327 327 328 328 329 330 334 330 329 331 332 332 330 333 335 335 333 331
307 309 307 306 308 308 309 308 307 308 308 308 310 311 314 316 318 323 326 324 324 324 327 327 329 335 333 330 329 329 329 329 333 335 336 330 330 332 330 330 330 336 334 332 331
306 308 309 310 309 309 308 308 308 309 308 307 310 311 314 315 317 321 325 326 323 324 327 329 331 332 336 332 331 332 329 327 329 334 330 330 329 332 330 329 330 336 334 331 331
306 306 306 308 308 307 306 308 307 307 309 308 310 311 313 315 317 321 320 321 324 326 329 332 330 333 329 329 328 328 327 326 328 330 330 330 329 329 332 331 331 336 334 332 331
306 307 306 305 305 306 306 308 305 306 307 309 311 311 312 314 314 318 317 320 323 323 328 334 331 332 328 328 328 328 327 327 327 327 327 329 331 330 331 331 331 335 334 332 331
303 305 306 305 306 307 308 307 308 307 307 308 309 311 311 312 312 314 314 317 320 323 328 335 332 332 334 328 327 331 329 328 328 328 329 330 331 330 329 329 330 336 335 335 333

GFSSW_925_thetae_003.txt.gz
Theta_e
309 308 307 307 306 304 302 300 300 302 304 305 306 306 306 306 307 309 316 312 314 313 326 326 327 329 329 329 330 330 330 331 330 329 330 326 325 326 326 327 327 325 323 327 327
309 309 308 308 307 306 306 304 302 301 301 303 304 306 306 306 307 313 311 312 316 315 320 329 329 328 329 330 331 331 331 331 330 329 329 326 323 323 327 326 326 327 325 328 328
310 309 309 308 308 308 307 307 306 304 302 301 302 305 306 306 318 315 320 319 314 317 317 321 328 329 330 331 331 330 330 328 328 329 329 328 323 323 324 326 326 325 324 324 325
308 310 310 309 308 308 308 308 308 307 306 303 300 301 305 307 312 319 316 316 317 317 319 320 321 327 331 332 330 330 329 329 328 328 328 326 324 323 323 325 326 326 324 322 322
306 307 308 308 309 309 309 308 308 307 307 305 303 299 306 314 313 313 315 319 316 318 319 318 318 321 325 331 330 330 330 329 329 328 325 325 325 325 323 326 326 324 323 323 321
305 305 305 306 308 309 309 308 308 308 307 307 306 304 314 312 309 311 313 315 319 317 318 318 318 319 322 327 329 329 328 329 329 328 326 326 326 325 325 326 326 323 322 321 321
304 305 304 304 306 308 309 309 309 308 308 308 310 311 312 311 312 314 314 315 320 319 317 317 319 319 321 321 323 325 325 326 328 327 325 326 326 326 326 325 325 323 322 321 322
302 302 305 305 304 305 305 306 306 307 308 308 312 311 311 309 311 311 313 313 314 322 319 319 318 317 319 320 323 323 326 328 326 326 326 325 327 326 326 325 325 325 325 324 323
306 302 301 305 306 306 305 305 305 307 308 309 312 312 309 308 310 311 313 313 314 318 322 323 320 318 319 320 321 323 325 326 327 326 326 326 327 326 326 325 325 326 325 324 322
306 306 304 299 303 305 304 305 305 308 311 312 311 311 310 313 311 313 313 315 315 317 317 317 317 318 318 322 323 323 325 327 328 327 326 326 327 327 326 325 325 324 325 325 325
306 306 305 303 298 304 304 306 312 315 313 315 313 310 314 315 317 315 316 315 316 315 320 319 315 319 320 321 323 323 325 327 328 327 326 329 329 327 327 326 324 324 325 327 325
305 305 306 305 298 301 304 305 310 310 313 313 313 311 311 313 314 318 315 317 315 315 314 316 316 317 321 322 324 325 324 325 325 326 327 328 328 328 328 327 325 324 324 324 325
304 305 305 305 301 300 305 305 307 307 313 313 314 315 315 315 314 316 316 316 315 314 314 314 317 319 322 321 323 325 325 324 325 327 327 327 327 329 328 326 325 325 324 325 325
304 304 305 305 303 305 310 310 310 310 312 309 312 313 317 317 319 316 317 316 316 315 314 314 316 319 322 323 323 324 325 325 326 328 328 327 327 327 327 325 325 324 324 325 324
304 304 305 305 303 303 308 308 310 311 315 310 311 314 314 319 319 318 316 316 316 316 315 315 315 317 319 323 323 324 325 325 327 327 326 325 325 325 326 327 325 322 325 325 324
304 304 305 305 306 302 306 309 309 311 312 311 315 315 315 320 320 319 317 316 316 316 316 316 316 316 317 319 324 325 325 326 327 324 326 327 326 326 327 327 325 323 324 327 325
304 304 305 306 306 304 305 309 314 313 309 312 316 315 316 318 321 321 317 316 316 317 318 317 316 317 318 319 320 325 323 326 326 323 326 326 327 326 326 326 323 325 326 326 326
304 304 305 306 305 305 306 310 313 309 309 310 311 313 317 318 319 321 320 316 315 316 317 319 318 316 317 318 321 322 323 327 329 329 326 326 327 327 327 324 323 327 327 327 325
304 304 306 306 306 306 307 311 309 309 309 310 310 312 315 318 319 320 320 317 316 316 317 318 319 318 318 318 320 321 325 323 325 326 326 326 328 328 324 323 322 330 329 326 325
304 305 306 306 306 306 307 310 308 309 309 309 310 310 311 313 315 319 319 320 318 317 318 318 319 319 319 318 319 322 325 325 322 325 327 328 329 330 324 323 324 332 329 328 326
304 307 306 306 306 306 308 307 308 307 307 308 309 310 311 312 314 318 321 321 320 318 317 319 322 323 320 319 319 322 326 323 320 321 325 327 329 325 324 326 330 332 330 328 326
305 306 307 306 308 305 309 306 308 308 309 308 308 309 310 314 317 318 320 322 320 319 318 318 322 323 325 321 321 324 325 322 323 326 325 328 328 328 330 330 330 333 331 326 325
305 306 306 306 308 307 306 307 307 307 307 308 309 308 309 312 318 318 320 320 320 321 319 319 320 329 323 324 322 326 325 325 323 325 328 330 329 327 328 332 333 332 331 328 324
304 305 307 307 307 307 307 306 305 305 306 308 309 310 309 313 314 317 318 319 316 322 329 322 320 320 330 326 325 327 326 324 325 328 329 330 327 329 327 329 332 331 328 327 325
304 305 307 307 306 306 306 306 306 305 305 305 309 310 310 313 315 317 316 315 316 322 317 322 320 326 323 326 327 327 327 326 325 326 327 327 328 328 326 325 331 330 328 327 326
304 305 305 304 306 305 306 306 306 306 305 306 308 310 311 312 313 315 313 312 314 314 313 319 323 323 328 326 326 327 327 326 325 325 326 326 327 326 326 325 331 330 329 328 327
302 304 305 305 305 306 307 307 308 307 307 307 307 308 310 311 312 312 311 311 311 313 313 319 329 324 324 326 327 328 327 326 326 325 325 325 325 328 328 327 331 330 329 328 327

GFSSW_925_thetae_006.txt.gz
Theta_e
310 310 309 309 309 308 307 306 306 304 302 302 303 304 305 305 306 307 310 309 312 313 322 324 327 328 327 326 328 327 330 331 330 329 328 327 325 324 325 326 325 323 324 326 327
310 310 310 309 309 309 308 308 308 307 307 303 302 303 304 304 306 311 310 310 311 311 317 327 327 328 326 327 328 329 330 334 331 328 327 327 326 325 323 322 324 325 326 327 326
307 308 309 310 310 309 309 308 308 308 308 307 305 302 301 303 315 312 313 317 317 311 314 320 328 326 327 327 328 329 332 331 331 329 327 327 327 325 322 322 322 324 326 325 324
307 307 308 308 308 307 308 309 309 308 308 307 306 305 300 306 306 314 316 315 316 314 316 317 318 325 328 329 328 330 330 331 330 329 327 327 327 327 323 322 322 323 325 324 323
306 307 307 307 307 306 307 309 309 309 308 308 307 308 305 315 309 313 317 314 317 317 321 317 317 318 322 329 329 330 330 330 329 327 327 327 327 326 323 323 322 323 323 324 323
302 300 303 306 306 305 305 307 308 309 308 308 308 310 310 307 307 308 309 311 313 319 319 317 316 317 316 321 325 329 330 329 329 328 328 328 328 324 325 324 323 321 322 321 320
306 306 301 299 303 306 305 304 305 306 306 307 311 312 311 308 305 309 310 311 311 315 317 318 317 317 316 317 318 322 326 328 328 325 324 325 325 325 324 323 323 320 319 321 321
307 306 306 305 301 303 305 305 304 305 305 307 312 312 311 306 305 306 306 307 309 313 316 317 317 316 316 316 318 320 320 322 322 323 324 323 327 325 324 323 323 322 320 320 318
306 306 306 306 305 303 301 303 304 303 307 309 311 311 309 305 307 304 307 310 310 312 313 318 315 315 316 317 317 318 321 321 322 323 325 324 326 326 324 323 324 323 322 322 320
305 305 305 306 306 304 299 301 303 305 308 310 312 312 309 308 308 309 308 310 311 313 314 318 318 315 314 315 319 320 321 323 324 324 324 325 325 325 324 324 324 322 323 323 321
306 304 305 305 306 305 301 302 308 313 310 313 311 309 312 311 312 312 311 310 313 314 314 318 319 317 318 318 320 321 321 323 323 324 325 325 326 326 325 323 323 321 321 322 321
304 304 305 305 305 305 302 304 305 308 308 309 312 312 309 310 310 312 314 313 312 314 314 317 316 316 318 319 319 319 322 322 322 323 323 323 324 326 325 324 322 322 322 321 323
304 304 304 305 305 303 303 305 308 307 309 311 311 313 313 312 312 312 315 315 312 313 313 315 319 318 317 318 320 319 320 324 324 324 323 323 325 324 326 325 324 323 322 323 323
303 304 304 305 305 304 302 305 306 308 310 311 312 313 313 313 316 313 314 315 315 312 314 313 316 318 317 316 319 320 321 323 326 326 325 323 326 322 324 324 323 322 321 323 323
303 303 304 304 306 304 302 304 307 308 304 306 308 312 313 315 317 316 314 314 315 314 314 314 314 315 315 315 318 321 320 322 324 325 323 324 322 321 323 325 324 322 322 322 322
303 303 304 304 306 305 305 304 307 309 310 307 311 312 314 314 317 317 316 314 315 315 314 313 314 314 314 316 318 320 321 322 322 323 326 324 324 326 323 324 324 322 324 322 322
303 303 304 305 305 305 305 306 311 313 308 309 309 308 309 316 317 318 316 314 315 314 315 315 314 314 315 315 316 320 320 323 323 324 327 323 325 325 324 324 323 320 322 322 323
302 302 303 303 304 305 305 310 314 308 307 307 309 309 311 314 316 317 317 315 314 313 314 315 315 315 315 315 315 315 316 324 326 326 324 323 325 324 322 323 323 322 323 323 323
303 303 305 305 305 306 306 310 307 307 307 308 308 310 310 310 311 317 318 315 315 314 315 315 316 317 316 316 315 315 318 317 322 323 323 323 324 326 323 323 326 326 325 324 323
305 304 304 304 305 305 307 308 307 307 307 307 309 309 310 310 314 314 317 318 316 315 313 315 317 317 317 315 315 315 317 320 319 325 325 324 325 326 323 324 328 327 325 324 324
303 302 304 306 306 306 306 305 305 305 307 308 309 308 308 311 312 314 315 318 318 316 315 314 317 320 317 316 315 314 316 320 320 320 325 323 323 321 321 321 329 326 325 324 325
302 302 305 306 307 305 305 304 305 305 306 307 307 307 308 311 311 313 316 317 315 314 317 315 314 317 317 317 316 315 316 320 323 322 321 321 322 322 321 322 327 326 326 324 324
300 300 305 305 303 307 304 305 305 306 306 307 307 308 309 310 311 315 316 315 315 313 316 316 315 318 323 318 319 316 319 319 318 319 323 322 322 324 326 328 328 327 325 324 323
299 301 303 302 305 306 306 306 307 305 304 305 307 307 309 310 309 312 313 313 313 312 316 314 316 316 319 320 320 319 318 322 320 321 322 322 324 326 330 331 330 328 325 324 325
298 300 304 301 301 303 303 305 305 306 304 303 306 309 309 311 311 311 311 312 311 313 311 310 319 316 317 319 323 322 320 323 323 321 323 323 323 323 326 331 331 328 325 325 325
302 302 302 303 302 302 303 304 306 306 306 307 305 307 308 310 311 313 311 311 312 311 310 310 318 318 318 318 318 319 323 324 324 323 322 323 325 323 326 329 328 328 326 325 325
302 302 303 303 302 302 303 306 307 307 307 307 307 306 306 308 310 311 311 309 310 311 310 311 318 321 320 320 319 319 321 324 324 324 324 324 322 321 323 329 330 327 327 326 325

GFSSW_925_thetae_009.txt.gz
Theta_e
311 310 310 310 310 310 310 309 308 308 307 306 304 303 303 303 305 306 307 309 311 312 311 321 327 327 326 325 326 324 328 330 329 328 327 325 325 325 323 323 323 321 324 325 326
308 308 309 310 310 310 310 309 309 309 308 308 307 305 303 301 306 310 310 310 312 310 311 326 329 327 325 326 326 328 329 329 326 326 326 326 327 327 325 325 321 322 324 325 325
306 307 308 308 309 308 309 309 309 309 309 308 308 307 305 301 310 307 312 315 316 310 310 322 326 326 327 325 327 327 330 328 327 327 327 326 327 328 326 326 325 322 322 324 322
304 304 304 306 307 307 307 308 309 310 310 309 308 308 307 306 305 310 315 315 317 315 314 318 324 325 325 327 326 329 328 329 328 327 328 328 328 328 327 326 325 323 323 323 322
306 306 305 303 303 306 307 306 306 307 308 308 308 309 310 313 306 311 317 311 317 318 316 314 316 322 325 326 326 327 327 327 327 327 328 327 327 327 327 326 325 320 323 324 323
306 306 306 306 305 304 302 306 305 304 305 307 309 310 311 308 304 306 309 308 309 319 319 315 315 315 316 318 321 326 327 327 328 329 328 328 328 328 328 326 325 321 322 323 323
305 306 306 306 306 306 305 301 302 306 306 307 309 310 311 312 306 305 307 307 308 309 318 318 316 316 315 316 315 317 319 320 323 325 326 326 327 326 324 323 322 322 319 321 322
305 304 305 306 306 307 306 306 301 302 306 307 308 310 311 310 310 308 309 306 307 310 313 315 317 315 315 314 316 317 317 320 321 323 325 322 327 324 323 322 323 322 320 319 320
305 304 304 305 305 306 306 305 304 303 305 307 307 309 311 308 310 308 308 306 306 307 307 313 314 314 313 315 314 315 318 318 320 320 321 321 323 324 323 322 322 322 321 318 318
305 305 304 304 305 305 305 304 303 306 307 307 308 311 309 308 306 307 307 306 308 308 310 311 314 313 311 313 316 315 316 318 320 320 320 321 322 323 323 323 322 322 322 320 320
305 304 304 304 304 304 306 304 302 310 309 310 309 307 309 310 309 310 307 306 310 311 309 314 316 318 317 316 316 316 316 317 318 320 322 322 322 323 323 321 322 322 322 320 320
304 303 304 304 305 305 305 301 305 307 308 307 308 310 311 311 311 310 308 309 310 308 311 315 315 318 319 317 316 317 318 320 321 321 321 321 321 321 321 321 321 323 321 319 322
304 304 304 303 304 304 303 303 304 304 309 309 308 309 309 310 312 311 311 311 309 309 310 311 314 319 321 318 319 318 318 318 320 321 321 321 323 323 322 321 322 321 320 320 321
304 303 304 304 304 304 304 303 304 303 308 307 312 310 311 310 311 311 312 313 312 307 311 311 313 316 319 318 317 318 319 319 320 321 324 322 324 322 321 322 321 320 319 319 321
302 303 303 303 305 304 304 304 305 306 301 304 308 310 312 310 311 310 311 313 314 310 309 311 312 313 316 316 316 318 319 320 321 321 321 323 323 322 320 323 321 319 318 317 320
303 302 303 303 304 304 304 304 305 313 308 306 308 307 310 313 313 314 312 312 313 313 310 309 313 313 314 317 317 316 318 318 318 319 323 322 322 324 322 322 322 322 321 321 319
302 303 303 303 304 304 304 304 308 312 306 307 308 308 308 310 314 314 314 312 313 314 314 312 311 313 313 315 314 315 317 319 319 322 325 321 322 323 322 321 321 322 321 320 320
302 303 303 303 303 304 305 307 309 307 308 307 307 308 310 309 310 314 314 313 312 313 314 314 314 312 314 313 314 314 317 321 325 324 323 322 325 324 321 321 321 320 319 321 321
303 303 303 304 304 304 305 308 306 307 307 308 307 309 309 309 310 311 315 315 312 313 313 314 314 315 314 314 314 313 317 318 318 321 322 322 322 322 322 322 324 323 322 322 322
304 302 302 304 305 305 306 303 306 306 305 306 307 309 308 309 310 311 314 315 318 313 311 314 314 314 315 314 313 312 313 314 312 318 322 323 323 324 323 325 326 325 323 322 322
302 301 303 305 305 306 305 304 304 304 304 306 307 306 307 309 310 311 313 315 315 314 314 312 314 316 315 314 314 312 314 314 316 318 322 322 323 319 321 322 325 323 322 322 323
299 299 305 305 306 302 305 304 305 305 305 306 306 307 307 309 310 308 311 313 313 312 314 314 311 314 315 315 315 314 313 313 316 318 319 321 324 321 318 319 323 323 322 321 322
300 298 303 304 307 303 304 305 305 305 305 306 307 306 307 307 310 309 311 311 311 310 312 312 315 314 315 316 314 313 313 313 314 316 320 321 323 321 321 318 324 323 323 322 322
300 300 300 301 302 305 305 305 306 305 304 304 304 305 306 308 309 310 308 308 309 309 313 310 315 316 316 316 316 316 314 313 315 317 318 321 321 325 326 323 325 324 322 323 324
296 299 302 302 301 302 301 303 304 306 304 303 304 307 306 307 310 311 311 310 308 310 310 308 312 318 318 315 316 318 317 315 316 316 318 320 319 320 326 325 325 324 322 323 324
299 303 303 303 303 301 301 304 306 307 307 306 307 307 307 307 310 311 311 312 310 309 309 307 309 316 321 316 315 315 317 316 318 318 319 320 320 318 322 326 327 325 324 324 325
301 301 301 302 302 299 300 304 304 305 307 307 307 306 306 307 308 308 309 310 310 310 310 309 311 312 321 318 315 316 316 316 319 320 320 320 319 319 325 328 328 325 324 325 325

GFSSW_925_thetae_012.txt.gz
Theta_e
307 308 309 309 309 309 309 310 310 310 310 310 309 307 307 305 303 304 307 308 312 310 312 317 319 326 326 324 324 322 328 329 326 326 325 323 326 324 324 324 322 322 321 322 325
306 306 306 307 307 308 308 308 309 309 310 311 311 309 308 306 306 311 308 308 310 310 310 324 326 325 323 324 325 326 328 328 324 323 325 324 327 326 326 327 323 322 320 322 324
308 308 308 306 306 306 306 307 307 308 309 310 310 310 310 307 308 305 310 310 311 309 309 317 325 325 326 324 325 326 330 328 326 324 326 327 327 327 327 328 327 324 324 322 322
307 309 308 308 307 306 306 306 307 308 308 308 309 309 310 307 303 310 313 315 319 311 311 323 325 325 325 326 326 328 327 327 327 325 325 327 327 329 328 328 326 324 323 322 321
306 307 307 307 307 307 307 306 305 306 307 307 307 309 310 310 306 311 316 306 315 318 313 317 324 324 324 323 325 325 327 326 326 325 326 326 327 328 328 327 326 325 322 319 321
305 305 306 306 306 307 306 307 306 305 304 306 307 309 309 311 308 307 304 305 306 313 318 313 316 321 321 321 324 323 325 325 324 325 325 327 327 327 328 328 326 324 322 319 321
305 305 305 306 306 306 306 306 306 306 306 305 307 308 309 309 309 306 306 307 307 307 316 315 314 314 314 316 314 316 318 316 318 319 320 323 324 326 325 324 321 321 321 319 320
304 304 305 305 306 306 306 306 306 306 307 308 307 307 308 308 308 309 309 308 308 308 308 315 316 314 314 313 314 317 316 317 317 319 319 321 323 323 323 322 322 321 320 319 317
304 304 304 304 305 306 304 305 304 306 307 307 306 306 307 308 309 308 309 309 309 308 306 309 315 314 313 315 315 313 316 315 316 317 319 322 321 322 321 321 321 321 320 320 318
304 304 304 304 304 304 304 304 304 307 306 306 306 307 307 305 309 307 307 309 307 304 305 307 312 313 311 313 317 315 315 315 315 317 318 318 319 320 320 320 320 320 320 319 319
305 304 304 304 304 304 305 303 303 307 308 307 306 307 306 309 309 309 306 308 307 306 305 308 312 315 312 314 315 314 313 313 314 317 318 318 319 320 320 319 318 319 319 319 319
304 304 304 304 304 304 304 301 305 304 307 306 306 308 308 308 310 309 307 306 307 307 307 312 311 312 314 314 315 316 314 314 316 320 319 319 319 319 319 319 318 320 320 319 318
304 303 304 304 303 304 303 303 304 304 306 308 307 307 307 308 310 309 310 307 308 306 308 308 310 312 315 317 316 316 317 317 317 319 319 319 319 320 320 319 318 318 318 317 317
304 304 303 303 304 303 303 303 304 305 309 307 309 308 308 307 309 307 310 309 307 307 307 308 309 312 316 318 318 317 317 317 319 320 319 319 323 320 319 321 319 319 317 317 318
304 303 303 303 304 303 303 304 304 305 307 302 307 308 310 308 308 309 308 310 312 306 308 308 309 311 314 318 319 319 319 319 319 319 318 319 320 321 319 320 320 319 318 316 316
302 303 303 303 303 303 303 304 304 308 308 305 307 306 307 311 311 311 310 309 312 308 307 308 309 310 313 317 319 317 317 316 316 316 319 318 320 320 320 321 321 320 319 321 319
302 302 304 305 302 304 303 303 306 307 306 308 307 307 308 310 310 312 311 310 312 314 312 309 308 310 312 314 315 314 313 315 317 318 320 319 320 319 319 319 320 320 319 320 320
302 302 302 303 303 304 303 304 307 305 306 306 306 305 307 309 308 311 313 313 309 312 313 312 312 308 312 312 315 317 315 315 318 321 323 319 323 322 320 319 319 319 318 319 321
302 302 302 303 304 303 303 305 303 307 305 306 305 307 307 307 306 310 310 315 314 310 312 313 313 312 311 313 314 314 316 314 317 318 320 320 320 320 320 321 321 321 320 320 321
302 301 301 304 304 304 303 303 304 305 304 304 305 306 307 305 307 308 310 314 313 312 310 312 313 312 311 312 314 312 313 315 314 318 322 320 321 322 322 321 323 323 320 320 321
301 298 304 305 304 306 302 303 303 303 304 305 306 307 305 306 308 308 311 313 311 311 312 311 311 315 312 312 312 311 311 312 313 313 318 320 321 318 320 320 322 321 319 320 322
298 298 304 304 304 301 301 304 304 305 305 305 306 306 306 308 310 308 309 308 308 310 310 311 311 312 313 312 312 312 311 313 314 316 316 319 320 319 318 317 320 320 320 319 321
300 298 301 303 303 304 303 304 305 305 305 305 305 304 304 307 307 308 308 309 306 308 310 311 314 313 313 314 312 312 312 312 311 313 316 318 319 319 321 320 319 320 320 321 321
300 299 298 300 301 304 304 303 305 304 304 304 303 302 304 307 307 309 308 307 308 309 312 308 310 315 315 313 313 313 313 312 311 311 315 319 319 320 325 321 319 321 320 321 322
295 297 300 303 301 302 303 302 303 305 305 304 304 304 306 307 308 310 310 311 308 310 311 306 309 313 312 315 316 316 314 313 312 313 314 315 317 317 318 322 320 320 320 322 323
298 302 301 301 303 303 300 302 304 304 305 308 308 306 305 307 308 309 309 309 309 309 310 309 310 310 313 317 317 317 314 313 313 313 313 316 316 315 317 323 323 322 323 324 324
301 301 302 302 302 302 302 303 303 303 304 306 306 305 306 305 306 305 305 306 309 309 310 311 309 309 311 312 316 316 315 314 315 313 313 316 316 318 323 325 323 323 323 324 324

GFSSW_925_thetae_015.txt.gz
Theta_e
308 308 307 307 307 307 307 308 309 309 310 311 311 311 310 308 305 305 306 308 311 310 313 321 325 325 322 324 328 326 332 331 329 328 328 326 328 327 327 329 328 327 328 327 326
308 308 308 308 308 307 306 306 306 308 309 309 311 310 310 309 309 309 308 307 309 309 321 322 322 325 327 328 328 331 333 331 328 327 327 326 327 328 328 329 329 329 328 325 325
307 307 307 308 308 308 307 307 307 306 308 308 308 309 310 309 306 305 315 311 308 307 315 318 319 323 325 327 329 329 332 330 329 328 326 327 328 327 328 329 328 329 329 329 329
306 307 306 306 306 307 306 307 307 308 306 307 307 308 308 309 310 313 311 307 308 315 314 315 319 324 323 327 328 328 329 329 329 328 328 328 328 328 329 330 329 329 329 329 329
305 306 306 306 307 307 306 307 307 307 306 306 306 308 309 311 308 312 317 311 309 321 314 314 320 320 321 323 325 329 328 328 329 329 329 329 329 329 329 328 327 328 329 329 330
305 305 305 306 306 307 306 306 306 306 306 308 306 307 308 308 307 308 308 307 306 317 315 313 318 320 320 321 324 323 326 326 327 328 328 328 327 327 327 328 328 328 328 328 328
304 304 305 305 305 306 306 306 305 305 306 308 307 306 307 307 305 307 307 307 306 308 310 314 314 317 319 320 321 323 326 326 326 326 327 323 322 323 325 325 325 326 327 327 327
304 304 304 305 305 305 305 304 304 305 308 308 308 306 307 306 307 308 308 309 309 307 308 310 313 314 315 316 316 318 319 319 319 319 320 319 322 322 323 324 325 326 326 325 326
304 304 304 305 305 305 304 304 302 306 307 307 306 306 307 305 307 308 309 309 310 310 308 308 313 316 315 316 319 318 319 319 319 319 320 322 322 321 322 323 324 324 325 325 326
305 304 304 304 305 305 304 303 305 306 306 306 306 306 305 307 309 308 309 310 310 309 309 308 313 315 315 316 319 319 318 318 319 319 318 319 321 321 321 322 324 324 325 326 326
304 304 304 304 304 304 303 303 306 308 306 307 306 306 306 306 306 306 309 310 310 308 310 309 312 316 315 315 316 318 320 321 321 318 317 318 319 321 322 322 323 324 325 327 328
304 304 304 304 303 303 302 304 305 303 306 305 306 306 306 306 307 307 307 309 310 309 310 310 312 314 315 314 313 315 318 319 318 317 318 319 320 322 322 323 322 324 326 326 327
303 304 304 303 303 304 303 303 303 304 306 306 307 307 307 307 308 308 309 308 308 309 309 312 313 311 313 315 314 315 315 316 317 317 318 320 321 320 320 323 323 323 324 326 326
303 304 303 303 303 302 303 303 304 304 308 306 307 308 308 308 309 308 307 308 308 309 309 310 312 311 312 314 315 316 316 315 315 317 319 320 323 322 322 322 322 324 326 327 326
303 303 303 303 303 302 303 303 304 305 304 304 310 308 308 309 310 311 308 308 310 309 310 310 310 311 312 313 315 316 316 317 317 319 320 320 323 321 323 322 322 322 326 327 324
303 304 304 303 301 302 303 303 305 308 304 306 307 306 306 309 309 310 310 308 310 311 309 311 311 311 313 314 316 317 318 319 320 321 323 321 322 321 322 322 322 325 326 325 326
301 301 303 303 303 303 303 304 307 306 304 307 307 305 305 308 308 308 310 310 309 313 314 311 310 310 311 313 316 319 320 321 321 321 323 321 322 322 323 321 322 324 327 326 328
301 301 302 302 302 302 303 306 305 303 306 306 305 304 304 307 306 307 310 314 308 312 315 314 312 311 312 313 316 320 320 319 322 324 322 321 321 321 323 322 323 325 326 326 328
301 301 302 303 303 303 305 305 302 304 305 305 304 304 305 305 305 305 309 317 314 311 313 316 315 312 312 314 319 320 321 319 321 323 324 325 324 325 325 325 326 325 325 328 329
301 301 303 304 303 304 305 304 304 304 304 304 304 303 305 305 304 306 307 311 312 311 312 315 317 314 312 313 314 318 319 319 319 320 321 323 325 326 326 327 327 328 328 328 329
300 303 304 304 303 305 306 305 304 304 304 305 305 306 305 304 307 309 308 309 309 311 311 314 315 316 312 314 314 315 319 318 319 318 319 319 320 327 329 328 329 330 328 329 329
300 304 301 304 305 303 305 304 304 305 305 305 305 307 307 306 308 309 308 308 309 308 311 312 317 317 315 313 315 315 317 318 317 319 319 320 320 324 327 327 327 328 327 328 329
300 300 300 303 304 304 303 303 304 305 305 305 305 304 304 305 308 308 308 307 307 310 312 314 318 318 317 316 315 316 316 317 319 320 319 318 320 323 327 325 324 328 327 327 328
302 303 303 304 302 303 303 303 304 304 305 305 305 305 306 306 306 307 309 308 309 309 311 311 312 317 317 317 317 315 315 316 317 318 318 319 318 321 323 328 326 327 328 328 329
301 302 302 303 303 303 301 301 303 304 305 305 307 307 307 308 308 310 309 311 310 310 310 311 314 312 313 313 315 316 315 315 316 317 318 319 319 319 321 324 326 327 328 329 329
302 303 302 302 302 303 302 302 303 304 304 304 307 305 305 306 307 307 308 310 312 310 311 311 314 312 314 314 316 317 317 315 315 315 316 316 319 320 320 322 326 328 328 329 330
301 300 302 302 303 303 304 303 304 305 304 304 305 306 306 305 305 306 305 306 307 308 310 313 313 313 316 315 316 318 318 318 316 316 316 316 318 318 320 324 327 329 329 329 330

GFSSW_925_thetae_021.txt.gz
Theta_e
308 308 308 308 308 307 307 309 309 309 309 309 308 309 307 304 303 313 317 315 315 314 314 326 329 328 326 326 325 328 331 334 334 333 332 332 332 331 331 332 331 331 331 331 331
308 308 308 308 308 308 308 308 308 309 309 310 309 303 302 304 311 313 314 314 312 311 314 321 327 326 330 330 328 329 333 334 333 333 332 332 332 332 332 332 331 331 331 331 331
306 307 307 307 308 308 308 307 308 308 308 308 308 307 301 307 314 314 316 314 311 309 312 317 324 326 327 330 330 330 333 334 334 333 333 333 333 332 332 333 332 331 331 331 331
305 306 306 306 306 306 307 307 307 308 308 307 307 308 303 311 314 320 311 309 311 315 312 313 318 326 326 327 330 333 333 333 333 333 332 333 333 333 333 333 332 331 331 331 331
304 304 305 306 306 306 305 304 305 306 306 307 307 307 308 312 314 314 311 314 315 320 321 317 318 322 328 326 328 330 330 330 331 331 331 331 332 332 333 332 332 331 331 331 330
304 304 305 306 306 306 305 305 304 303 303 307 308 308 310 310 310 311 312 312 314 316 322 319 320 323 326 328 328 328 329 329 329 329 329 330 332 331 332 332 332 330 330 330 330
304 304 305 305 306 305 306 306 304 302 302 307 308 309 310 310 308 309 310 311 312 314 316 321 320 322 325 328 328 329 330 330 330 329 329 329 330 331 330 330 330 330 329 329 329
304 304 304 305 306 306 305 303 302 302 303 308 309 309 311 307 306 307 308 309 310 311 313 315 319 322 323 324 326 327 329 331 330 329 329 329 331 330 330 330 331 329 328 328 328
305 305 304 305 305 305 303 301 304 305 306 309 310 310 311 308 309 309 308 309 310 312 313 313 315 318 321 322 326 328 330 331 330 329 329 329 331 330 330 330 330 330 329 328 329
305 304 304 304 304 303 303 303 306 306 309 310 310 311 311 308 307 310 311 311 313 313 315 315 315 316 319 322 327 327 328 328 329 328 328 329 330 329 329 327 328 329 329 328 328
304 303 304 304 304 303 304 308 310 312 312 312 309 310 309 308 307 307 308 310 313 314 316 317 316 316 318 320 323 324 325 327 328 328 328 328 329 329 328 327 328 329 329 328 328
303 301 301 302 301 303 306 308 308 307 310 308 308 308 307 307 307 308 307 309 312 316 314 317 318 318 317 319 321 322 324 326 327 327 328 329 329 329 328 328 328 328 329 329 329
303 303 303 302 301 307 307 307 306 307 309 308 308 308 309 309 309 309 309 308 309 315 316 316 318 317 317 318 319 322 323 325 326 326 327 327 327 327 327 328 327 327 328 328 329
304 304 304 303 305 306 306 306 306 307 310 307 309 310 310 311 312 311 310 310 309 310 315 316 315 318 318 318 319 321 322 323 325 326 326 325 329 327 327 328 327 328 329 329 329
303 303 304 303 306 307 306 306 306 307 309 307 309 311 310 310 311 313 313 312 309 309 310 314 316 316 318 319 318 320 320 322 324 324 325 324 325 325 326 327 328 328 328 329 328
303 303 302 307 307 306 306 306 306 311 309 308 309 310 309 309 311 310 312 313 313 311 310 312 314 317 317 318 319 319 320 321 323 324 326 325 325 326 327 328 329 329 328 329 329
302 302 306 306 308 306 306 306 311 311 307 308 309 308 309 308 307 310 310 311 314 314 312 311 313 315 317 317 319 320 321 323 326 326 328 324 326 327 328 328 328 329 328 328 331
302 305 307 307 307 307 307 310 311 307 307 306 305 306 305 305 306 306 309 309 310 314 317 311 311 313 317 317 319 320 321 323 327 327 325 325 327 328 328 327 327 328 328 332 335
304 307 307 307 307 306 309 313 307 307 306 306 307 308 308 306 305 306 307 308 313 312 320 321 311 312 315 317 317 320 322 322 324 325 326 328 328 329 329 329 326 328 328 333 336
306 307 308 306 307 308 311 308 306 306 306 307 308 309 308 307 307 307 307 313 311 310 312 319 318 312 316 317 317 320 321 322 325 327 329 328 330 331 329 327 327 330 329 333 337
307 309 308 307 307 310 311 307 306 305 306 308 308 308 308 309 309 309 309 312 311 310 311 315 321 320 314 319 318 318 321 322 324 324 327 330 329 330 330 329 329 331 333 337 338
308 309 305 307 312 312 310 306 306 306 306 306 308 308 309 309 309 309 311 311 309 311 315 315 320 324 319 318 318 318 321 322 326 327 325 328 328 327 327 329 329 331 335 338 337
309 308 307 306 312 309 307 306 306 306 306 306 306 308 309 309 310 308 310 312 310 311 316 316 320 323 327 323 318 318 320 323 325 327 326 327 328 327 329 332 331 333 336 337 336
309 310 308 308 306 308 307 308 307 306 307 308 308 307 308 310 309 311 310 312 310 311 312 313 319 321 330 324 318 319 320 322 325 327 327 326 327 325 329 331 332 335 336 336 335
309 308 307 309 309 306 306 307 309 310 308 308 308 307 309 309 308 310 311 310 311 311 313 315 319 318 321 323 323 319 321 323 324 326 327 326 325 327 331 331 333 335 335 336 336
308 307 307 307 306 306 307 309 307 308 308 308 309 309 308 308 309 310 309 311 313 313 316 315 322 316 320 321 324 320 320 321 324 324 324 324 324 326 329 327 328 330 333 336 335
305 304 306 306 307 306 308 307 307 307 308 308 308 310 309 308 309 309 309 309 310 311 312 314 320 321 324 321 322 322 321 321 321 323 323 323 323 323 324 325 327 330 330 334 335

GFSSW_925_thetae_024.txt.gz
Theta_e
307 308 308 308 308 309 309 309 309 309 308 309 307 303 303 302 303 311 315 315 317 315 316 326 327 332 333 335 328 325 328 333 333 333 333 332 332 332 332 332 331 331 331 331 330
306 307 308 308 308 308 308 308 308 309 309 309 305 302 302 302 310 313 312 312 315 315 316 319 328 328 329 330 330 327 328 330 331 332 332 333 333 332 333 333 333 332 333 331 331
306 306 307 307 307 307 307 308 308 308 309 309 309 307 302 305 314 313 315 315 313 315 314 317 321 328 328 327 330 330 330 328 330 331 332 332 333 334 334 334 333 334 333 333 331
306 307 307 307 307 307 307 307 308 308 308 308 308 308 303 310 313 316 312 314 313 313 314 314 316 321 328 328 327 331 331 330 330 330 332 333 333 333 333 334 333 333 334 333 333
304 305 306 305 306 305 304 304 305 306 305 306 308 308 309 308 311 314 314 313 314 315 315 316 316 318 322 328 328 328 330 331 331 331 332 332 332 333 332 332 332 332 333 334 333
304 304 306 306 306 306 305 303 302 302 303 307 308 308 310 309 309 310 312 313 314 315 317 322 319 319 321 323 328 329 327 328 328 330 330 331 331 330 331 331 331 332 333 332 333
305 305 304 304 304 305 305 304 302 302 301 305 309 309 310 309 308 309 310 311 313 314 317 318 323 322 321 323 324 326 328 329 330 329 330 330 331 332 331 331 331 332 332 332 332
304 304 304 302 302 302 301 301 301 301 304 305 309 309 310 307 307 308 309 309 309 311 313 314 317 318 322 322 323 325 326 330 329 330 330 331 332 332 331 331 331 331 332 332 333
305 304 303 303 304 303 302 301 300 303 307 308 310 310 310 309 310 310 309 308 309 309 311 313 314 318 319 323 325 325 328 329 330 329 329 330 331 331 331 331 332 332 332 332 332
305 305 303 302 301 301 301 302 305 308 309 311 311 312 313 312 309 310 311 311 309 310 311 314 315 315 317 320 326 326 326 328 329 328 329 330 331 331 331 330 331 333 332 330 330
304 303 303 303 301 301 304 309 309 311 313 315 315 313 312 310 308 308 308 309 311 313 313 313 316 317 317 318 320 322 325 325 327 327 329 331 331 330 331 330 331 332 331 331 332
303 303 302 302 301 301 306 310 308 308 309 309 309 309 308 307 308 308 308 308 310 313 315 314 317 318 316 316 317 318 321 324 326 326 327 328 330 331 331 331 331 332 332 332 332
303 303 301 301 302 308 308 308 306 307 309 308 308 309 308 308 308 309 309 308 308 310 314 315 315 316 317 317 318 319 320 324 324 324 325 327 329 331 330 330 330 330 330 330 331
302 302 301 303 307 307 308 306 306 307 308 309 308 309 308 309 310 311 311 309 308 308 309 313 315 314 317 318 318 321 319 320 322 324 327 326 330 332 331 330 329 329 330 331 331
302 302 302 304 308 308 306 307 306 307 314 310 312 311 312 312 313 313 313 311 310 310 309 308 313 315 315 318 318 319 319 320 321 323 326 325 329 329 328 327 328 329 330 331 332
302 302 305 308 308 309 307 307 307 311 315 310 310 308 310 311 311 313 313 313 314 313 309 309 309 311 316 315 317 319 319 319 321 323 327 326 328 328 328 328 328 330 331 331 331
302 303 306 307 308 307 307 308 312 314 309 306 306 306 306 307 309 310 311 311 312 317 315 313 310 310 311 315 316 318 323 323 324 324 326 324 326 328 328 327 329 331 331 331 331
302 304 308 308 307 307 308 310 313 310 305 306 306 307 308 307 307 307 307 309 310 310 312 319 321 311 312 314 317 318 322 323 324 325 325 324 327 327 328 328 329 327 330 330 334
305 310 309 309 308 308 311 313 311 307 305 306 306 310 310 310 310 309 306 307 309 313 315 317 318 316 311 314 316 318 319 321 324 324 324 326 327 328 328 329 329 327 330 336 338
305 310 309 309 309 309 313 311 308 306 305 306 306 309 311 309 310 310 311 311 311 311 310 312 315 314 317 313 314 318 319 321 324 326 329 327 328 329 331 332 330 328 333 339 341
308 312 310 307 309 311 313 309 307 306 305 306 306 309 308 310 311 311 311 311 312 310 310 311 314 314 316 319 314 318 319 320 324 324 327 329 328 335 333 330 332 333 332 341 340
310 312 308 308 314 315 311 308 307 308 307 307 307 308 309 310 310 310 311 313 312 311 312 313 315 318 317 319 313 317 319 321 324 326 326 327 329 332 333 330 333 333 336 340 339
312 311 309 308 313 311 308 308 308 308 309 308 308 308 308 310 313 312 312 313 311 312 314 315 319 320 319 320 321 318 319 322 326 329 329 327 329 330 329 332 331 337 339 339 339
312 310 310 310 310 310 309 308 308 309 309 308 308 309 310 311 310 311 312 312 311 311 311 313 316 318 322 324 324 324 319 320 325 326 327 328 329 330 330 331 334 339 340 339 338
311 309 309 309 309 308 308 308 309 308 307 308 309 308 308 309 309 309 310 311 311 311 312 314 318 318 315 318 323 325 325 319 322 325 327 328 328 328 332 333 338 339 338 338 337
309 308 307 307 308 309 309 309 308 308 309 309 309 308 308 309 309 310 309 309 311 312 313 315 319 317 318 315 318 323 324 323 321 323 326 327 329 332 333 333 336 338 337 337 337
307 307 307 308 308 309 311 310 309 309 310 308 309 311 309 309 310 308 310 309 309 310 312 313 316 320 319 315 320 325 324 323 322 325 327 328 330 332 330 331 335 337 337 337 337

GFSSW_925_thetae_027.txt.gz
Theta_e
307 307 307 307 308 307 308 308 308 308 304 302 302 302 303 302 301 306 312 309 314 314 315 326 323 331 331 332 331 326 322 323 327 329 331 330 330 330 331 331 331 331 331 330 331
307 307 307 307 308 307 307 308 308 308 308 307 301 301 301 302 306 311 307 308 308 314 316 315 317 326 333 331 334 334 322 323 324 326 328 328 329 330 331 332 332 331 331 332 331
306 306 307 307 307 307 307 307 308 308 308 308 307 302 301 303 312 312 313 313 313 312 314 316 317 319 328 327 329 330 331 325 325 325 327 328 329 330 331 332 332 332 331 331 330
305 306 307 307 307 307 307 307 308 307 308 308 305 305 304 308 310 313 313 313 314 313 314 315 313 314 315 327 325 328 328 329 326 326 326 328 328 330 331 330 330 329 329 330 330
305 305 305 304 303 303 304 304 304 304 304 304 305 308 308 308 308 306 309 313 314 314 314 313 312 313 313 316 325 326 325 326 328 328 327 328 328 329 330 330 329 329 327 327 327
304 304 304 303 301 301 301 301 301 301 302 305 308 308 308 309 305 305 308 310 313 314 313 313 313 313 314 315 316 321 326 326 326 327 328 329 329 328 329 328 328 328 326 326 327
304 303 302 301 300 300 300 300 300 300 304 307 309 309 308 308 303 305 307 307 308 309 313 315 317 318 316 316 317 319 321 322 325 326 325 326 327 327 327 327 328 328 328 327 327
305 304 303 301 301 301 300 300 300 300 302 307 311 310 308 304 306 307 308 308 309 309 309 310 312 312 316 317 319 319 319 322 322 323 325 325 328 327 326 328 328 328 328 328 326
306 305 305 303 305 302 301 301 304 305 305 306 310 310 309 308 309 308 308 308 308 308 309 310 311 311 314 316 318 320 321 321 323 323 324 326 327 328 327 327 328 328 328 328 327
305 303 303 302 302 301 301 307 308 309 310 310 311 312 310 312 311 310 311 309 311 309 308 309 309 311 311 314 320 321 323 322 323 323 325 325 326 326 326 326 327 327 327 327 327
302 302 302 302 300 301 304 308 307 309 312 309 309 314 314 313 313 309 309 309 309 310 307 308 309 312 312 313 316 319 323 323 323 323 324 324 325 325 326 325 325 326 325 326 326
301 302 301 300 303 305 308 309 306 306 306 307 307 307 308 308 309 308 307 307 308 307 311 311 309 311 313 314 315 316 316 317 320 322 322 324 325 325 326 325 325 326 326 325 325
301 301 301 303 306 308 308 307 307 307 306 307 307 308 308 308 308 308 307 307 307 306 307 311 313 312 313 315 316 315 315 316 316 318 319 320 321 322 323 324 325 325 325 325 326
301 301 302 305 308 308 308 307 307 307 306 309 312 312 310 307 308 308 308 308 307 306 306 306 310 315 313 313 315 316 316 316 317 318 319 320 322 322 322 324 325 325 324 323 323
300 302 303 307 307 309 309 307 307 307 313 311 310 309 308 309 311 312 312 311 310 308 307 306 307 309 312 314 314 315 317 317 318 317 318 320 321 321 322 325 324 323 323 323 323
301 302 303 308 308 308 307 308 308 312 312 310 308 307 306 307 308 309 314 313 313 310 310 310 308 307 307 309 314 314 316 317 317 317 318 319 320 321 321 322 324 324 323 323 323
301 303 304 306 308 308 308 307 310 311 308 305 304 307 308 310 309 309 310 314 313 314 315 315 314 309 309 308 309 312 312 316 318 318 319 318 321 321 321 323 324 323 323 323 325
301 306 307 309 309 308 309 310 307 308 308 306 305 307 307 308 309 310 310 309 311 312 313 313 313 314 315 308 308 309 313 315 319 320 319 318 320 321 321 322 323 323 322 331 338
303 308 310 310 309 308 308 309 309 310 308 305 305 306 307 308 310 311 310 311 308 310 312 315 314 314 312 312 310 309 310 314 315 318 318 319 319 319 320 320 324 324 326 338 338
304 307 311 309 308 309 309 311 310 308 308 308 310 308 310 309 309 310 312 311 311 311 311 311 312 310 310 311 312 314 311 315 314 318 320 321 320 321 323 323 322 326 330 338 337
306 311 311 308 309 310 309 310 308 308 308 309 309 308 309 309 308 310 310 310 313 312 310 310 311 311 310 310 312 315 311 311 314 315 319 322 321 322 325 324 324 326 337 337 336
308 312 308 308 310 310 310 309 308 307 309 309 308 309 310 309 310 310 311 312 311 311 310 313 315 318 315 312 312 313 315 312 315 317 318 320 322 327 330 326 325 335 337 335 336
307 311 309 309 311 310 309 308 307 308 309 309 308 309 309 310 311 310 311 311 310 311 312 314 314 316 316 314 313 315 318 314 314 318 317 321 320 321 324 328 328 337 337 336 335
307 312 309 309 308 308 308 308 309 308 308 307 307 308 309 309 309 311 311 310 311 312 313 312 312 314 317 318 318 321 321 321 316 318 319 320 321 320 322 326 335 337 336 336 335
309 308 308 307 307 307 309 310 310 310 308 309 309 308 308 310 309 309 310 310 311 313 313 313 317 315 315 317 317 317 318 317 320 319 320 320 322 322 328 337 337 336 335 335 336
309 308 307 307 306 307 310 312 310 310 309 310 310 310 311 310 310 311 310 309 308 311 313 314 319 317 318 316 316 317 315 316 318 321 321 317 320 324 328 337 337 336 335 336 336
306 306 307 308 307 307 309 310 311 310 309 309 309 311 312 311 310 309 309 308 309 309 309 314 314 316 317 317 317 318 314 314 318 321 322 318 320 329 333 336 334 334 334 335 335

GFSSW_925_thetae_030.txt.gz
Theta_e
306 306 306 307 307 308 308 308 308 307 308 304 304 303 306 305 301 302 308 305 309 312 310 314 323 323 320 328 329 322 322 322 323 326 327 327 327 328 329 329 329 330 329 328 332
306 306 307 307 307 307 306 304 305 307 306 304 301 301 302 301 306 308 304 305 306 310 314 316 317 324 331 331 331 332 328 324 321 324 324 324 326 326 329 329 330 330 330 331 331
307 307 307 307 307 307 307 306 305 304 304 303 302 302 304 303 308 307 313 312 313 308 313 315 316 316 324 329 330 332 335 327 323 322 323 323 324 326 327 328 328 330 330 330 330
306 307 307 306 306 305 303 304 306 307 303 302 302 306 307 306 299 312 307 306 312 318 313 315 312 314 314 323 328 329 331 333 331 328 326 325 324 325 326 326 327 327 327 328 327
306 306 305 302 301 300 300 300 300 301 304 306 307 307 307 307 309 304 305 302 306 318 315 313 312 311 312 312 314 320 326 327 326 327 327 326 326 326 326 326 327 328 327 326 324
305 305 303 302 302 301 301 301 301 301 303 307 307 308 306 306 302 301 304 307 308 308 315 311 311 311 312 312 313 314 316 321 323 323 323 326 327 328 328 328 328 327 325 324 324
305 303 302 302 301 301 300 300 300 301 306 308 308 309 308 307 303 302 302 303 304 306 307 311 312 313 312 313 313 314 315 317 318 319 323 324 326 327 327 326 325 325 324 324 324
305 304 303 304 303 300 300 302 306 307 308 309 310 309 308 307 306 304 305 306 307 308 308 308 309 309 313 314 316 318 317 318 319 319 319 322 325 326 325 324 325 325 325 326 325
305 304 301 301 301 303 301 306 308 308 308 308 310 309 309 309 309 311 309 306 306 307 307 308 308 309 311 313 315 315 322 319 319 320 321 321 323 324 323 324 324 324 325 325 326
303 301 301 305 303 304 306 307 307 311 310 310 311 311 310 311 311 311 311 308 308 307 308 307 305 308 308 311 318 319 320 320 320 320 321 321 322 322 323 323 323 323 324 325 325
302 300 301 301 304 306 308 308 305 304 305 306 306 308 309 307 306 307 310 308 309 308 306 306 305 307 309 311 313 317 318 320 320 320 321 322 322 323 323 323 322 323 324 324 323
300 300 301 301 305 307 308 307 306 305 305 306 306 306 307 307 307 307 306 307 306 306 307 306 306 307 308 311 312 313 314 316 316 316 320 321 322 322 322 323 322 323 323 323 322
300 300 302 304 306 307 308 307 307 307 304 305 308 310 309 308 308 307 307 307 306 305 305 307 311 310 309 310 312 313 313 315 316 315 315 315 316 317 318 318 319 320 321 321 323
301 300 302 304 307 308 308 308 307 307 306 309 310 308 308 307 307 308 307 307 306 305 305 305 305 306 309 310 310 313 313 314 314 315 315 316 316 316 317 317 318 319 319 320 320
301 300 302 304 307 307 307 307 308 306 308 307 309 309 308 309 309 310 311 312 309 307 305 305 305 306 308 310 313 310 313 315 315 315 314 315 317 317 317 319 319 319 319 321 320
300 301 303 306 306 308 307 308 307 305 305 308 307 306 307 309 308 310 311 311 312 311 307 306 306 306 305 306 307 308 312 312 313 313 315 315 315 316 316 317 319 320 319 320 319
301 302 304 304 306 309 308 305 304 305 308 308 307 305 306 307 308 310 310 310 313 317 312 312 313 312 312 308 307 306 307 311 314 315 317 315 316 317 316 317 318 318 319 319 318
302 302 309 309 308 309 308 304 302 308 310 308 308 306 306 308 308 309 310 310 311 312 312 313 313 312 313 313 307 305 305 311 314 317 316 316 317 316 316 317 318 319 319 321 332
303 305 307 310 309 308 302 304 308 309 309 310 309 307 307 308 309 308 310 311 311 312 312 312 312 312 311 310 310 310 306 307 310 312 315 316 316 317 317 317 317 317 323 335 335
304 306 308 309 308 308 304 308 308 308 307 309 309 308 308 308 308 309 310 312 313 311 309 310 311 310 309 309 309 311 311 309 308 314 315 317 318 318 318 318 318 317 333 336 335
306 307 310 308 309 304 303 307 308 307 309 309 309 308 309 310 308 310 311 311 312 311 310 310 310 311 311 310 308 309 313 308 309 310 315 317 318 317 317 317 318 317 335 336 336
303 308 309 307 304 297 304 308 308 307 309 309 308 308 309 309 310 310 310 312 310 312 313 312 312 315 311 309 311 311 310 311 311 310 313 315 317 317 318 318 323 327 337 335 335
302 304 310 308 303 302 305 307 308 308 309 309 308 307 308 309 310 310 310 309 310 310 312 312 310 312 309 312 312 314 315 318 314 312 312 316 316 316 317 318 331 337 336 336 335
302 307 302 300 302 305 305 308 310 309 309 308 308 307 308 309 307 309 309 310 310 311 313 313 311 312 310 312 313 318 318 317 317 315 313 313 315 316 316 317 334 334 335 335 337
302 303 304 303 305 304 305 308 311 313 309 308 309 309 309 311 309 309 309 310 309 310 312 311 314 313 313 314 314 316 317 317 317 316 320 318 319 317 316 318 328 334 335 336 337
302 304 303 305 304 304 305 309 311 310 310 310 309 309 309 312 311 313 311 310 310 308 311 311 313 316 314 314 315 317 317 316 315 315 316 318 322 318 316 327 334 335 335 337 337
303 304 304 307 304 305 304 308 309 309 309 309 309 309 310 311 311 309 308 308 308 307 308 313 314 315 314 316 317 318 317 316 319 316 319 320 320 321 334 337 337 336 335 336 336

GFSSW_925_thetae_033.txt.gz
Theta_e
307 307 307 307 307 307 307 307 308 307 307 308 308 308 308 307 300 302 305 302 305 309 309 312 314 322 320 325 327 317 320 321 323 324 326 325 327 328 328 328 327 328 329 328 331
307 307 307 307 307 307 304 302 303 306 308 306 307 307 308 303 305 306 302 304 303 303 311 311 311 323 323 325 329 324 320 320 320 322 324 321 322 323 326 326 326 326 329 330 330
307 308 307 307 307 306 306 303 302 300 301 305 307 308 308 304 304 300 311 309 307 309 309 317 315 317 325 329 329 330 331 322 322 322 322 322 322 322 324 325 325 327 327 327 328
308 307 307 306 306 307 307 307 307 307 305 302 305 308 307 305 297 309 308 308 303 305 319 314 313 314 313 321 327 332 331 331 328 325 326 326 325 324 323 324 324 325 325 326 325
307 306 306 304 302 302 303 302 302 306 306 307 307 308 307 305 304 302 301 301 305 307 323 315 312 313 312 312 316 321 328 327 328 327 329 329 329 328 326 325 324 325 325 325 325
305 303 302 302 303 304 301 300 301 303 306 307 308 307 306 308 305 303 302 303 303 304 306 313 311 310 311 311 314 314 317 318 320 322 322 324 324 324 325 326 326 327 326 323 322
303 303 302 302 301 300 300 304 305 306 307 310 309 308 308 308 306 307 307 306 305 303 305 307 312 311 310 312 311 313 313 315 315 315 316 320 322 324 323 324 325 326 324 323 321
305 304 301 301 304 303 305 307 307 308 309 310 309 309 309 308 308 308 308 309 307 305 306 307 308 306 312 311 313 316 313 314 316 316 317 319 324 323 323 324 325 324 322 323 323
305 303 300 301 304 305 306 307 307 309 309 309 310 308 309 309 310 309 309 307 307 306 307 308 307 307 310 311 313 314 319 318 318 318 318 319 322 322 321 322 322 322 322 322 322
303 302 300 302 304 305 307 307 306 310 309 310 310 308 306 307 307 307 307 306 307 307 306 305 304 306 306 310 316 317 318 319 320 318 318 319 320 321 321 320 321 320 321 321 321
303 300 300 301 303 306 308 307 304 303 304 305 305 306 306 307 307 307 307 306 306 308 306 305 303 306 309 310 312 312 315 317 318 317 318 319 319 319 319 320 320 321 322 322 321
302 300 300 303 305 307 307 306 306 305 304 305 305 305 306 307 307 307 307 306 306 305 304 304 306 307 307 308 310 310 311 312 314 315 315 317 318 317 318 319 320 320 320 320 320
300 300 300 304 305 307 307 307 307 307 304 305 305 308 307 307 308 307 306 306 306 305 304 304 307 308 307 307 308 309 311 312 314 314 314 314 315 315 315 314 316 317 318 318 318
300 300 301 304 306 307 307 307 307 306 304 308 309 309 307 307 307 308 307 306 306 305 304 303 304 305 305 307 307 307 310 312 314 313 314 314 316 314 314 314 315 314 315 316 317
300 301 301 303 306 306 307 308 307 304 301 307 307 306 305 308 307 309 310 311 310 310 305 305 304 305 305 306 308 309 308 310 313 313 312 313 313 313 313 313 313 314 314 315 316
301 301 303 304 305 307 308 308 305 302 302 308 306 308 306 306 307 309 310 311 310 313 310 307 305 305 304 305 305 306 307 309 309 311 313 313 313 314 313 313 313 315 316 316 315
302 302 303 305 306 308 307 302 302 304 307 309 308 308 307 306 307 308 308 309 312 314 314 311 306 307 306 305 307 305 304 309 311 312 314 313 314 314 313 314 314 314 314 314 314
303 304 304 308 309 309 307 302 301 307 309 308 309 308 306 306 308 308 308 311 311 312 313 314 313 311 312 310 310 304 303 307 313 315 313 313 315 315 313 314 315 314 313 313 314
306 307 306 309 309 308 300 303 307 308 308 308 309 307 307 307 307 307 307 311 312 311 314 314 312 311 310 309 309 309 304 305 306 308 310 313 313 314 314 315 314 314 313 313 319
306 306 309 309 308 307 302 307 307 308 308 308 309 308 308 307 308 307 309 311 312 311 310 310 311 310 310 308 308 308 309 305 304 310 313 313 314 316 315 314 315 315 314 317 333
305 305 308 309 308 301 302 305 307 307 307 309 308 308 307 308 308 308 310 310 311 310 311 309 309 310 309 308 306 307 310 309 306 306 312 314 314 313 315 315 315 314 316 326 333
301 306 309 307 303 293 302 307 308 308 308 309 308 308 307 308 309 309 309 310 310 310 313 311 310 313 310 307 308 309 309 310 310 310 309 311 313 313 312 312 313 316 324 332 333
302 301 307 306 300 299 302 306 307 309 309 309 309 308 307 308 309 309 310 310 308 310 311 311 309 311 308 311 311 312 312 310 311 310 313 310 311 312 311 313 324 333 334 334 336
303 305 300 298 300 303 304 306 308 307 309 308 308 307 308 308 308 310 309 308 309 310 311 311 311 310 311 310 310 312 313 316 316 315 315 314 312 312 312 316 315 327 334 334 336
300 302 302 302 302 303 303 305 308 309 309 308 309 308 310 311 310 310 309 310 309 309 310 310 312 311 311 312 313 314 314 314 317 316 317 316 316 314 316 317 318 320 333 336 336
300 301 301 301 302 305 303 306 308 308 309 309 310 309 308 310 310 311 311 310 310 308 310 308 310 312 313 313 312 315 314 315 316 316 316 315 315 315 316 319 331 329 335 337 337
301 301 301 301 303 304 304 307 307 307 307 309 309 310 309 308 308 307 307 308 309 309 307 309 310 311 311 309 315 316 316 315 316 315 314 317 317 320 326 331 334 332 335 337 337

GFSSW_925_thetae_036.txt.gz
Theta_e
307 306 307 308 307 307 307 307 305 305 307 308 309 308 307 303 300 302 304 301 302 304 303 307 315 322 323 325 324 315 318 319 322 324 323 324 323 326 325 328 325 327 328 328 328
307 307 307 308 307 307 307 306 306 307 307 308 308 308 308 303 305 306 301 305 307 306 311 310 310 322 315 320 327 320 318 318 318 321 323 323 321 321 324 323 325 325 327 327 329
307 307 307 306 307 307 307 307 307 307 308 308 307 307 307 306 302 298 310 310 303 304 308 313 316 315 325 326 325 328 326 318 317 319 321 322 321 321 322 323 323 324 325 323 324
306 306 306 306 306 306 306 306 307 307 307 308 308 307 307 304 298 306 313 303 302 306 316 315 313 313 315 327 327 331 329 327 325 324 324 322 323 323 323 322 322 322 322 322 323
305 305 305 305 306 306 306 305 306 307 309 308 307 307 305 304 303 303 303 305 306 304 309 317 312 312 312 313 320 329 328 329 330 330 328 328 331 329 329 328 325 325 325 324 323
304 304 304 305 305 304 304 305 306 308 309 309 308 307 306 305 305 306 307 308 307 306 303 314 311 310 311 310 316 314 317 323 324 324 323 325 325 324 325 325 326 325 325 324 323
301 300 299 299 300 302 305 306 306 309 310 310 309 307 307 305 307 308 309 308 307 306 303 305 313 313 309 311 310 311 313 313 314 316 320 322 324 325 323 323 323 323 323 323 323
304 302 299 299 300 303 306 306 306 308 308 309 309 308 306 305 308 309 309 308 307 306 305 304 306 306 308 310 312 313 311 315 316 314 315 319 323 323 322 323 323 323 322 322 322
304 302 300 300 301 304 306 307 306 308 307 309 309 307 307 306 308 307 308 307 306 306 305 306 305 305 308 310 311 312 317 314 315 315 316 317 321 320 320 320 321 320 320 320 320
304 301 300 300 303 305 307 306 306 307 309 310 310 307 306 306 307 307 307 306 306 305 305 304 303 305 305 309 314 313 316 317 318 316 316 317 318 318 319 320 320 320 319 319 319
303 302 300 300 304 306 307 307 303 303 304 305 304 305 305 305 307 307 307 306 305 305 305 304 303 305 308 309 311 311 312 314 316 316 317 317 318 318 317 317 318 318 319 319 319
303 303 301 301 304 306 306 305 305 305 304 305 303 304 305 305 307 307 306 305 305 305 304 303 303 305 307 308 309 309 310 310 312 312 313 313 313 313 313 314 316 317 318 317 317
301 302 300 301 305 306 306 306 306 306 303 304 304 305 306 305 307 306 306 305 305 305 304 303 304 305 306 306 307 308 309 310 312 312 312 312 314 315 314 312 313 313 314 315 317
301 303 301 302 305 305 306 307 308 305 303 305 306 306 305 305 306 306 306 305 305 304 304 303 303 304 304 305 306 306 309 310 312 312 313 311 315 314 314 314 313 312 312 313 313
301 302 301 302 304 306 307 307 307 302 299 305 306 306 306 305 305 307 310 309 307 306 306 307 303 304 304 304 306 306 306 307 311 311 311 312 311 313 311 311 310 311 312 312 312
301 303 303 304 305 307 307 307 305 302 300 308 306 307 307 306 306 306 307 310 310 312 312 311 307 304 303 304 305 307 308 307 307 309 311 311 311 312 311 311 311 310 311 311 310
302 305 303 304 305 307 308 301 302 303 306 308 307 307 307 307 306 307 307 307 310 312 315 312 309 307 305 304 304 304 303 307 309 309 309 310 311 312 310 311 311 313 312 311 311
304 306 303 306 308 308 304 300 300 306 307 307 307 307 307 305 306 307 307 309 311 312 313 317 312 306 308 305 304 303 302 306 314 314 310 309 314 312 311 312 311 311 310 310 310
305 308 306 308 309 308 300 302 305 307 308 308 307 308 306 305 306 306 306 309 311 311 314 316 313 311 311 310 307 307 304 305 305 306 306 309 310 311 312 312 312 311 311 311 310
305 306 307 308 308 306 302 307 305 306 307 307 309 308 308 306 306 306 307 309 310 310 309 311 311 310 311 311 310 307 305 304 302 307 311 310 311 312 312 311 313 313 312 311 311
304 304 307 307 307 301 302 304 306 307 308 309 309 309 307 307 307 307 309 309 310 310 310 309 309 311 309 308 305 306 308 307 303 304 310 313 312 310 312 312 311 313 321 321 320
300 306 306 306 302 291 299 304 306 308 308 308 308 307 307 307 307 308 309 309 308 309 311 310 310 312 310 307 308 307 307 309 310 310 306 308 308 308 310 311 312 315 322 331 331
303 302 306 304 298 297 301 305 306 308 307 309 310 308 307 308 310 308 309 308 306 309 310 310 309 311 308 310 309 310 310 309 308 308 311 309 308 309 310 311 313 313 322 333 333
303 303 299 297 297 302 304 305 307 306 309 308 307 307 308 309 307 310 310 308 307 308 310 310 310 310 308 308 309 311 312 311 314 314 310 310 311 311 311 312 313 314 320 334 335
297 301 302 300 299 300 304 305 307 307 308 307 308 308 311 312 309 309 309 309 309 309 308 307 312 310 309 310 311 312 312 312 314 313 317 315 315 314 313 313 313 315 326 334 335
295 299 298 298 299 302 302 305 306 306 306 307 309 308 309 310 308 310 309 310 311 309 308 310 312 310 310 310 312 313 311 312 312 313 314 315 316 314 312 313 321 324 330 335 336
299 298 299 300 299 300 300 304 305 305 306 307 307 309 308 308 308 307 307 307 308 310 310 311 312 308 309 309 311 310 311 313 312 312 313 315 313 312 319 322 322 326 330 334 336

GFSSW_925_thetae_042.txt.gz
Theta_e
307 307 307 308 307 308 308 308 308 308 305 304 304 307 306 303 304 309 308 306 306 305 305 311 309 321 324 329 326 324 327 327 325 323 321 322 323 324 326 330 332 333 335 332 334
307 307 307 307 307 306 307 307 306 306 307 308 308 307 305 304 309 308 312 305 304 304 310 311 311 318 324 325 328 327 328 328 326 324 321 320 322 324 327 328 333 332 331 330 331
306 306 306 306 306 306 304 305 306 307 308 308 308 308 304 307 309 312 316 313 307 307 310 312 312 312 320 325 326 329 329 328 328 325 321 320 323 324 325 327 333 334 332 331 330
306 306 306 306 306 303 303 305 306 306 307 308 307 307 305 309 308 308 310 307 307 308 312 315 315 313 316 320 324 327 328 329 328 326 322 322 322 323 324 324 329 330 330 329 331
305 306 306 305 305 303 303 305 306 306 306 306 305 307 310 309 308 307 309 310 309 308 308 309 315 315 314 317 319 324 325 326 327 327 327 324 324 325 326 326 326 326 327 329 331
305 306 305 304 301 302 304 306 306 306 307 306 306 307 310 310 307 309 310 310 310 310 309 308 312 315 315 315 317 320 321 323 325 326 328 328 329 329 329 329 330 331 332 332 330
305 305 304 303 301 303 305 306 307 306 307 307 307 310 312 309 308 309 310 310 310 309 311 309 308 312 316 316 316 317 318 320 323 324 326 326 330 331 329 329 331 331 331 331 331
304 305 304 302 301 304 305 305 306 306 307 308 308 311 311 308 309 310 310 310 310 309 309 309 308 309 311 316 316 315 317 319 320 322 323 325 330 330 329 329 330 330 330 330 330
302 303 301 300 301 304 305 305 306 307 308 309 313 312 309 308 308 308 309 309 310 310 309 309 309 309 309 312 315 316 317 318 319 320 322 322 326 327 327 327 328 329 329 329 329
302 302 303 302 301 305 306 306 305 311 311 311 311 313 309 308 308 307 308 309 310 310 310 311 311 311 311 310 313 314 317 317 317 319 321 322 323 323 324 326 326 327 328 328 328
298 300 301 301 301 305 307 309 311 311 309 309 310 309 309 308 307 308 308 308 310 310 310 311 311 310 310 311 311 312 315 317 318 318 319 321 322 323 324 324 325 326 326 327 327
300 302 302 302 303 305 308 309 309 309 311 309 309 309 308 308 309 308 308 308 309 310 310 310 310 310 310 309 310 311 313 316 317 317 319 320 321 322 322 323 324 325 326 326 326
300 302 304 303 304 308 308 309 308 308 311 308 309 309 308 308 308 308 308 308 309 309 309 310 309 309 309 309 309 310 311 313 315 316 318 319 321 322 322 323 323 323 324 324 324
302 304 305 303 307 308 309 308 308 309 312 308 309 309 308 308 308 307 308 309 309 309 309 310 310 309 309 310 310 310 309 310 313 316 318 319 321 321 321 322 322 322 323 323 324
301 303 303 304 308 310 309 308 308 308 312 307 308 308 309 309 308 307 307 310 309 308 309 309 309 310 311 310 310 310 309 309 312 314 317 317 319 319 320 321 321 322 322 322 322
302 306 303 304 307 309 308 308 308 313 311 308 308 309 309 309 308 307 307 308 309 310 312 311 311 312 312 312 311 310 309 310 310 313 316 317 318 319 319 320 320 320 321 321 320
303 305 306 306 310 308 308 309 312 313 308 309 309 309 310 309 308 307 308 308 311 312 312 311 312 313 313 314 311 309 309 311 312 313 314 315 316 317 319 318 318 319 319 320 321
303 305 305 308 309 309 309 309 312 308 308 309 310 310 310 308 309 308 308 309 311 311 312 315 314 312 313 316 312 310 309 311 312 313 313 312 314 316 316 317 318 318 320 320 322
305 310 310 310 309 308 312 310 309 308 309 310 310 309 309 308 309 308 308 309 310 310 312 313 312 311 313 314 314 313 312 311 311 312 315 312 313 314 315 317 318 319 319 324 327
306 311 311 308 309 310 310 308 308 307 308 310 311 309 310 310 309 309 309 308 308 309 310 311 314 311 312 312 312 311 311 311 311 317 315 313 314 315 316 316 316 320 321 321 326
308 313 308 307 308 310 310 306 307 307 308 310 310 310 310 310 309 309 309 308 309 309 309 310 311 312 311 312 311 312 311 315 314 315 313 313 314 316 318 320 321 320 320 322 330
308 311 308 306 310 311 307 306 305 308 309 309 310 311 311 310 310 310 310 309 309 309 310 311 313 312 311 310 310 312 312 315 320 315 314 315 317 319 320 319 319 319 319 321 328
308 308 308 306 311 309 304 305 306 308 309 309 310 310 310 310 312 310 310 309 309 309 311 313 313 313 310 314 313 311 310 311 313 315 320 316 315 319 318 317 317 318 319 320 321
306 309 309 307 307 305 305 306 308 307 308 309 310 308 310 311 310 310 310 309 309 310 310 311 313 313 314 311 310 310 311 311 312 315 313 313 315 316 317 316 317 318 319 318 319
305 307 307 309 310 308 308 306 306 308 308 308 309 309 309 311 311 310 310 311 310 309 311 311 315 312 311 311 310 310 310 310 312 312 313 313 314 314 315 316 317 318 317 317 318
306 306 306 307 307 308 307 307 305 306 307 306 308 309 309 310 310 311 310 311 314 311 311 312 317 313 313 312 311 311 311 311 310 310 311 312 313 313 313 313 314 314 316 317 319
301 301 301 305 307 306 308 307 307 306 306 306 307 308 309 309 309 309 309 310 310 312 311 314 313 313 313 310 311 311 310 311 310 310 311 312 313 314 314 313 314 315 315 318 320

GFSSW_925_thetae_045.txt.gz
Theta_e
307 308 308 308 308 308 307 306 306 306 306 307 306 307 306 303 303 312 313 308 308 304 304 310 313 315 322 325 328 329 331 331 329 327 326 325 324 325 328 328 329 333 336 336 338
307 307 307 307 307 307 306 305 306 306 307 307 307 306 306 303 312 312 311 304 307 306 311 312 314 315 323 325 328 330 332 331 329 328 326 325 324 325 325 327 330 335 335 333 336
307 307 307 307 307 307 303 305 306 306 308 308 307 306 304 308 315 316 309 311 307 307 311 312 313 315 317 324 325 329 332 330 329 328 328 327 324 325 325 327 330 333 335 334 334
306 307 307 307 306 303 303 305 306 306 307 306 305 305 305 313 313 312 309 309 307 310 310 314 315 316 315 318 324 327 327 329 330 329 329 328 324 324 325 327 327 331 335 334 333
306 306 306 306 305 302 303 305 306 306 306 307 306 306 313 315 312 310 310 312 312 310 311 312 314 317 317 317 319 322 325 326 327 329 329 329 328 326 326 326 327 327 331 333 333
305 306 306 305 302 302 304 306 306 306 306 306 307 309 316 314 310 311 311 311 313 312 312 312 311 315 317 318 318 319 321 322 323 326 327 329 329 329 329 327 327 327 326 329 331
304 303 304 301 300 302 304 305 305 305 306 306 307 313 316 311 310 311 311 312 312 311 312 312 312 311 315 318 318 318 319 319 321 323 324 327 329 330 329 329 330 329 329 330 332
302 302 303 303 300 302 304 305 305 305 306 307 307 315 315 309 309 309 310 310 311 311 312 311 311 312 311 312 314 317 319 320 320 321 322 323 327 328 328 330 331 331 331 331 332
299 299 300 301 300 303 304 305 306 306 307 307 315 316 314 309 309 309 309 310 309 310 311 311 312 313 312 311 311 313 318 320 319 320 321 321 325 325 326 329 330 331 332 332 332
300 300 299 301 300 303 305 308 310 311 314 314 313 314 312 310 309 309 309 309 310 311 312 312 313 314 314 313 312 313 314 315 318 319 320 320 323 323 324 326 329 330 330 331 331
304 302 301 301 301 304 307 313 315 317 312 311 312 310 310 310 309 309 309 309 311 312 313 313 312 314 315 314 314 314 313 314 316 318 319 319 321 322 323 324 325 327 329 332 332
305 304 303 304 301 306 309 312 311 311 312 312 310 310 309 310 310 310 309 309 310 311 311 312 312 313 312 312 312 312 312 314 314 315 318 321 321 321 322 324 325 325 327 328 329
305 306 303 305 303 309 310 311 310 311 314 312 310 311 311 309 310 310 310 309 310 310 310 311 311 311 311 311 312 312 313 312 313 315 317 319 320 321 322 322 323 324 325 326 328
304 303 305 302 308 310 312 310 310 311 315 312 311 311 310 310 311 309 309 310 310 310 310 310 310 310 310 310 311 312 312 312 312 312 314 316 321 321 322 323 324 324 325 326 326
305 303 303 303 311 312 311 311 310 312 321 310 310 310 310 311 311 310 308 309 310 310 309 309 310 310 311 311 312 313 312 312 312 312 313 314 317 319 320 323 323 323 324 324 325
305 305 305 304 311 311 311 311 311 319 318 311 311 311 311 311 311 310 309 309 310 310 311 311 313 313 313 315 314 312 313 313 312 312 313 313 316 318 320 321 322 323 323 324 324
305 305 308 310 314 311 311 312 318 318 311 312 311 311 311 311 310 309 309 309 310 311 311 311 312 313 314 314 315 314 315 315 312 314 313 313 314 317 318 320 321 321 322 323 323
305 306 308 311 312 311 312 315 316 311 311 311 311 312 312 310 310 310 310 310 310 310 311 313 313 312 313 314 314 317 315 313 312 312 312 316 316 315 318 320 321 320 320 321 322
307 312 312 313 312 310 313 316 313 311 309 311 312 313 311 310 311 310 311 310 310 310 311 313 313 311 311 313 314 315 317 314 311 312 313 316 316 317 316 318 319 320 321 321 325
308 312 314 311 312 310 315 315 311 309 309 311 313 312 312 311 311 311 310 310 309 309 310 311 313 311 312 313 313 315 314 320 313 314 313 314 316 317 316 316 319 320 322 323 324
310 312 312 310 310 314 316 311 308 308 308 311 313 313 312 312 311 311 311 311 311 310 310 310 313 312 311 312 315 315 314 316 316 317 315 316 319 318 318 317 319 320 322 323 328
310 314 312 307 314 314 313 308 305 308 311 311 312 311 311 311 312 312 312 311 311 310 311 311 314 314 311 311 313 313 313 313 320 318 315 315 319 318 320 322 319 322 321 322 323
310 311 310 309 316 316 312 309 308 309 311 311 311 310 311 311 313 313 312 311 311 312 312 314 313 316 312 312 315 316 315 312 315 316 319 319 320 319 321 322 321 321 321 321 322
310 311 311 310 310 311 312 313 309 308 309 310 311 311 311 312 312 314 312 311 311 312 313 313 314 314 317 313 314 314 314 314 313 316 315 313 315 318 318 318 319 320 321 319 320
310 311 310 310 311 310 311 312 310 309 309 310 310 310 311 312 312 311 312 312 312 312 312 313 319 314 313 312 311 312 311 310 311 311 313 313 312 313 317 317 319 318 318 317 320
309 309 308 307 310 310 309 311 311 310 309 309 310 309 309 311 310 311 311 312 314 313 313 314 316 314 314 312 311 312 311 311 311 311 311 311 311 311 313 314 315 316 316 317 319
304 303 305 308 309 310 309 309 309 308 308 309 309 309 311 311 310 311 311 312 312 314 315 314 315 314 315 312 312 311 311 311 311 311 311 311 311 312 313 314 316 317 316 317 318

GFSSW_925_thetae_048.txt.gz
Theta_e
308 308 309 309 308 308 309 308 307 306 306 308 309 307 308 306 304 311 315 310 309 304 303 310 310 315 316 321 325 326 331 333 330 329 329 327 326 326 325 325 326 329 331 336 339
307 308 308 308 308 307 305 304 305 306 306 307 307 306 306 306 311 313 308 307 306 307 311 312 313 314 316 320 323 326 330 331 330 329 329 328 327 326 325 325 327 329 331 335 337
307 307 308 308 307 304 303 304 305 306 306 306 306 305 306 307 317 315 310 309 306 305 311 313 313 315 316 317 322 325 329 330 330 329 329 328 328 327 325 325 326 329 331 335 335
307 307 307 307 304 303 302 303 304 306 306 306 306 306 307 313 317 316 309 312 309 310 313 312 314 314 316 317 318 323 325 327 329 330 330 330 329 328 327 326 326 327 331 335 335
306 306 306 303 300 300 301 304 304 306 306 306 306 307 314 321 315 312 311 313 313 315 313 313 313 316 317 317 318 318 321 324 326 327 328 328 330 330 328 327 327 327 328 330 337
304 305 304 303 301 300 302 304 304 304 304 304 306 307 317 321 311 312 312 313 313 313 313 314 313 313 313 315 318 319 319 319 320 323 326 328 328 330 330 330 329 328 328 328 335
300 299 300 301 301 300 302 303 304 305 304 305 306 313 318 315 311 311 312 311 313 313 313 313 313 313 313 313 315 317 318 319 319 320 321 323 325 327 328 330 330 330 329 329 329
304 304 303 300 301 300 302 304 305 305 305 305 307 314 320 310 310 310 310 311 311 310 311 312 312 313 313 313 313 313 315 318 319 319 320 320 323 324 325 328 330 330 331 331 330
306 306 304 299 300 301 302 304 306 307 306 307 314 317 318 310 311 310 310 311 310 311 311 311 312 312 313 313 313 313 312 313 315 319 319 320 322 324 325 326 328 330 331 331 332
308 307 306 303 301 301 304 306 310 309 314 315 314 315 315 312 311 310 310 310 311 311 313 314 313 314 315 314 313 313 313 313 313 315 317 319 321 323 323 322 326 327 329 332 332
306 305 305 304 303 302 306 313 316 319 317 315 312 313 312 311 310 310 310 310 311 312 312 313 313 314 315 316 316 315 315 315 315 315 316 317 319 321 324 323 323 325 327 330 332
305 305 304 304 304 303 306 315 312 311 312 312 312 312 311 310 311 312 310 310 311 311 312 312 313 313 313 314 313 313 314 314 314 314 315 316 316 319 322 322 325 325 325 327 329
305 305 304 305 301 305 313 312 311 312 313 314 312 311 312 311 311 312 311 310 310 311 311 311 312 312 312 312 312 313 313 313 314 314 314 314 316 319 319 322 323 324 326 327 327
304 304 304 303 308 312 314 312 311 311 315 315 311 312 311 311 312 312 311 310 309 311 311 311 310 310 311 311 312 312 312 312 312 313 314 314 316 318 319 321 323 323 324 326 327
302 304 303 302 310 314 312 311 311 313 327 313 312 311 311 312 312 313 311 309 309 310 310 311 311 312 312 313 314 314 313 313 313 315 314 313 314 315 316 319 321 324 324 325 327
305 305 306 308 310 312 311 311 314 321 324 312 312 312 312 312 312 312 311 311 310 310 311 312 312 312 314 315 314 314 313 313 314 315 316 314 314 315 316 318 319 322 324 325 326
306 305 303 310 314 312 311 314 318 323 313 313 312 311 312 313 312 311 310 311 310 310 311 311 311 313 315 315 316 312 314 321 315 315 317 314 314 316 316 316 318 319 322 324 325
306 307 309 309 312 312 311 316 321 315 314 312 311 312 314 312 311 311 311 311 311 310 311 312 311 312 313 314 314 313 313 317 322 315 314 312 312 315 317 318 318 319 322 323 324
306 312 313 313 313 312 313 318 318 313 311 310 311 314 313 312 312 311 312 311 311 310 310 310 310 310 310 310 314 313 314 316 320 317 318 313 312 312 315 317 318 319 321 324 324
307 312 314 314 312 312 314 318 316 311 310 310 312 314 314 313 312 312 312 312 312 312 312 311 313 311 311 311 312 315 315 316 317 317 318 314 312 312 317 321 318 319 322 323 325
310 315 314 313 311 314 319 316 312 309 308 309 313 313 313 312 312 312 312 312 313 313 313 311 313 313 313 311 311 313 314 316 319 318 317 314 314 317 319 321 320 319 321 324 323
311 313 314 309 313 318 316 312 308 309 310 311 312 313 312 312 313 311 312 312 313 312 312 313 315 315 312 311 312 314 316 317 321 317 316 317 318 317 317 317 318 316 323 323 324
314 314 312 311 317 315 312 313 312 310 311 311 311 312 312 311 313 312 314 313 312 314 314 315 314 316 312 311 315 315 314 313 315 319 319 319 316 318 317 317 317 319 320 322 321
313 315 314 313 313 314 313 312 313 312 310 310 311 311 312 313 311 312 312 312 312 313 313 314 315 315 317 313 315 315 314 314 314 319 314 314 314 316 316 317 316 317 321 321 319
313 314 312 313 311 311 312 312 312 311 310 310 311 310 311 313 312 312 311 312 312 313 313 314 319 315 313 312 312 312 313 311 313 314 313 311 312 312 316 316 315 316 317 318 318
310 308 308 309 311 311 312 313 311 312 312 312 311 310 310 311 311 312 311 312 314 313 314 315 317 315 316 313 311 311 311 310 310 311 311 310 311 313 313 315 315 315 316 316 317
307 305 306 308 311 310 311 311 309 309 309 310 310 310 311 311 312 311 311 312 312 314 316 316 318 316 317 313 312 315 314 314 315 314 316 315 316 318 318 315 316 317 317 318 317

GFSSW_925_thetae_051.txt.gz
Theta_e
308 308 308 308 308 308 307 304 304 305 305 306 307 308 309 306 305 308 312 313 311 309 308 308 309 310 313 315 317 322 329 330 329 329 328 326 326 327 325 323 323 324 325 336 337
308 308 308 308 308 308 305 302 302 304 305 306 306 306 307 307 308 311 310 310 307 307 307 310 312 311 311 314 314 321 323 327 328 328 328 327 327 327 326 324 323 323 326 334 337
307 307 307 307 308 306 303 301 302 303 305 305 306 306 307 309 313 313 311 308 308 306 306 311 313 312 311 313 314 319 323 323 324 326 328 328 327 327 327 325 323 323 324 331 337
304 306 305 303 303 302 301 301 303 304 304 305 305 306 307 313 319 315 310 311 311 308 312 313 312 310 312 312 314 315 319 322 323 324 325 326 327 328 327 326 324 325 324 325 325
299 298 299 299 300 301 300 301 302 303 304 304 304 306 311 318 317 312 312 312 312 313 315 313 310 310 312 312 312 314 316 316 321 323 323 324 325 326 326 327 327 326 326 324 324
305 303 304 300 299 300 300 301 302 303 304 305 305 306 316 321 311 312 312 313 313 314 313 312 312 311 311 309 309 312 314 316 317 316 317 322 325 325 326 326 327 328 326 325 325
307 307 306 303 299 300 300 301 302 303 305 305 306 312 314 317 311 311 311 311 312 313 312 312 312 311 310 310 310 310 310 312 315 317 317 317 319 321 325 325 325 325 326 327 326
308 308 308 307 303 299 301 301 302 304 307 305 307 313 317 311 309 310 310 310 311 310 310 311 312 310 310 310 310 310 309 309 314 316 317 316 318 318 319 321 325 326 326 327 327
309 307 306 306 305 301 301 302 304 305 309 307 313 314 317 311 310 310 310 310 310 310 311 311 311 310 310 310 308 310 308 309 310 311 313 315 317 318 318 319 322 322 322 326 327
305 305 305 307 305 303 302 305 311 312 313 315 315 315 315 314 311 310 310 310 310 310 311 312 310 309 308 310 311 310 310 311 311 311 311 310 312 315 317 318 319 321 322 324 326
302 303 304 304 305 304 303 309 313 315 314 318 319 317 313 311 311 310 311 310 311 310 309 311 309 309 310 311 312 312 312 313 313 313 313 312 313 313 314 314 317 319 319 321 324
306 304 304 304 304 302 303 310 310 310 311 312 311 311 311 310 310 312 312 310 310 309 309 309 309 311 311 311 311 311 311 311 312 313 312 312 313 313 313 313 314 315 319 320 322
306 306 304 303 303 302 307 313 311 312 310 312 313 311 311 310 311 311 311 310 309 308 309 309 310 311 310 309 310 309 310 311 311 312 312 311 312 312 312 313 314 315 316 320 320
307 306 304 303 310 312 313 312 312 311 312 316 311 311 311 310 311 312 311 309 308 308 309 309 309 311 310 310 312 313 313 313 313 313 312 312 312 311 312 313 313 314 315 316 317
306 306 305 305 305 310 311 311 312 312 325 314 311 311 311 310 312 313 311 309 309 309 309 309 309 310 311 314 314 314 314 313 313 312 312 312 312 312 312 313 312 312 313 314 317
306 307 306 311 311 313 312 311 313 319 324 311 312 311 310 312 312 312 311 310 310 309 308 308 310 312 313 313 313 313 313 312 313 312 313 311 313 313 312 312 313 313 313 314 315
306 307 307 305 312 312 312 311 317 323 316 312 311 311 310 311 313 311 311 309 309 310 309 310 309 313 314 314 313 312 311 313 313 315 315 312 311 312 312 312 313 314 314 314 314
306 308 309 307 311 312 311 313 322 318 313 311 310 310 311 313 312 311 311 311 312 309 308 310 310 309 315 313 311 312 315 318 319 315 313 314 316 312 311 312 317 317 315 314 314
306 310 314 314 314 312 312 317 320 316 311 309 310 312 313 313 312 312 311 311 312 310 310 310 311 311 310 310 310 311 314 311 317 316 320 317 313 313 316 317 317 317 316 316 315
305 311 315 315 313 313 312 317 317 310 309 308 308 312 314 313 312 311 311 313 313 313 311 313 314 312 311 311 311 310 311 313 314 318 318 313 312 316 318 318 316 316 316 316 318
308 314 315 314 311 312 316 317 314 310 310 310 310 311 313 313 311 312 311 311 314 313 311 311 313 314 312 311 310 311 312 317 317 319 319 318 315 318 317 316 315 314 314 315 319
309 315 313 310 312 317 318 314 312 313 311 310 311 313 313 313 312 311 311 313 312 314 315 314 315 314 313 311 311 315 316 315 319 318 320 319 314 317 314 314 314 314 314 315 316
309 314 312 311 317 314 313 313 311 312 311 310 310 311 311 312 314 314 312 312 311 314 315 315 313 315 312 309 313 314 313 312 313 314 315 316 314 316 316 316 315 315 314 315 318
311 314 314 312 312 310 310 312 312 312 312 311 311 310 311 312 311 313 311 311 310 312 315 313 314 314 315 314 313 313 312 312 312 313 313 312 313 313 317 316 315 316 316 316 317
311 312 309 312 310 310 311 312 313 314 312 311 312 311 310 312 311 310 310 310 312 313 312 312 316 315 315 315 314 313 313 311 311 310 312 312 312 314 315 316 314 317 316 314 315
306 306 305 306 309 310 311 312 311 311 309 309 310 310 309 309 309 311 310 311 311 311 314 314 317 316 317 316 314 314 314 311 311 315 317 317 314 315 315 314 314 314 314 313 314
306 306 307 306 308 308 309 308 311 310 310 309 308 308 309 309 309 309 309 309 310 310 310 315 316 315 314 313 314 316 313 314 315 315 316 317 315 313 314 315 314 313 313 315 316

GFSSW_925_thetae_057.txt.gz
Theta_e
307 307 307 307 307 307 307 306 306 306 306 305 305 304 304 306 308 309 308 303 309 310 312 309 308 308 309 311 314 320 329 332 330 328 327 325 325 325 325 325 324 322 322 323 340
308 309 309 309 309 308 307 305 304 305 305 305 303 303 304 309 313 310 309 303 309 310 307 308 307 311 307 310 313 316 321 328 328 327 327 326 325 324 325 324 324 324 324 324 335
309 309 310 311 310 310 308 307 305 304 304 303 303 304 304 312 312 313 312 310 311 308 307 307 310 311 308 309 311 313 319 322 323 322 323 323 323 322 323 323 323 323 323 323 323
310 310 310 310 309 310 309 308 306 303 301 302 304 305 307 314 316 314 310 309 309 309 307 310 310 310 308 309 310 311 312 316 317 318 319 319 320 320 321 321 322 322 322 322 322
305 306 306 305 307 309 309 307 305 302 301 302 305 306 311 316 317 311 311 310 310 310 311 312 311 309 309 308 309 310 310 311 312 312 313 317 319 320 320 320 321 321 322 322 322
308 307 306 306 308 309 309 308 304 300 301 304 306 308 314 313 312 312 312 311 312 314 313 312 309 307 308 309 309 308 309 309 309 310 310 313 314 314 316 316 316 316 318 322 322
307 307 307 309 308 309 308 306 303 301 301 304 306 312 312 305 312 312 311 311 312 312 312 311 310 309 308 309 308 309 308 307 308 309 311 314 314 315 316 316 316 317 318 320 322
307 306 306 308 309 309 306 304 301 301 303 304 308 313 309 311 314 310 309 310 309 310 312 311 309 309 309 308 307 308 305 306 307 309 309 312 314 315 313 314 315 315 316 317 319
307 306 306 307 307 307 303 302 304 306 308 308 312 311 316 315 311 310 309 309 309 309 310 309 309 308 308 307 306 306 307 308 308 308 309 311 310 310 310 311 311 311 312 314 314
307 306 306 307 305 303 302 308 313 312 313 313 313 314 312 314 312 310 310 309 308 308 307 308 304 307 303 305 309 310 309 309 310 310 309 309 310 310 310 311 311 310 311 311 312
305 305 306 307 304 303 304 311 304 306 314 311 316 313 316 314 311 309 309 309 309 306 306 306 306 308 307 306 308 309 310 309 309 310 309 308 310 310 309 309 308 309 310 310 311
303 303 306 306 304 307 306 309 311 308 308 308 309 313 313 313 310 308 310 308 308 307 306 305 306 307 307 307 308 308 308 310 309 311 311 310 310 310 309 309 309 308 309 309 310
300 302 306 306 305 307 308 310 311 309 307 308 310 310 310 309 310 309 309 308 308 306 306 306 307 308 308 310 312 311 312 313 312 312 310 309 310 309 309 309 309 309 308 308 308
303 304 306 305 308 309 310 311 310 308 311 316 311 311 309 308 309 310 310 308 307 306 306 306 307 308 308 311 312 311 312 313 312 311 311 310 311 309 309 309 309 308 308 307 307
303 305 306 306 310 309 311 311 310 310 315 316 309 309 307 308 309 311 309 307 307 307 306 306 307 307 307 311 312 310 312 311 311 310 309 310 309 308 308 308 308 307 310 313 312
304 306 307 307 307 311 311 312 311 314 317 311 309 309 309 309 309 310 308 308 307 306 306 306 306 308 310 312 311 311 310 307 307 308 310 309 309 308 307 308 308 312 314 313 312
307 310 309 305 308 310 312 308 313 315 310 309 308 308 308 310 310 309 309 308 306 308 308 307 307 311 311 311 308 307 306 308 308 307 310 308 310 310 309 310 313 313 313 312 311
309 312 309 307 311 313 310 310 316 313 309 308 308 308 312 311 311 311 310 309 311 307 305 306 307 310 313 310 309 309 307 308 311 311 308 308 310 310 312 313 313 314 312 312 311
312 313 314 314 313 312 306 312 315 312 310 308 308 310 311 311 311 311 310 312 312 310 311 310 311 310 310 309 308 309 310 307 309 309 309 309 310 311 311 313 313 312 311 310 309
311 312 314 314 314 309 308 314 314 311 310 309 308 310 311 312 312 312 312 312 313 311 308 310 312 310 311 310 309 307 307 308 307 313 314 310 312 312 310 310 313 312 310 309 309
310 310 313 311 311 308 311 313 314 311 310 310 309 310 310 313 311 312 312 311 311 312 311 311 310 311 311 310 308 308 310 311 308 310 309 310 311 310 312 313 313 311 310 309 308
304 310 312 310 307 304 310 311 311 310 311 310 309 309 310 311 311 311 312 312 310 312 313 312 310 313 312 309 309 309 309 310 305 306 314 312 312 310 309 308 310 310 311 310 309
304 305 311 310 304 304 304 309 309 311 312 311 309 309 308 309 311 312 313 312 308 309 312 310 309 313 310 307 306 311 313 311 310 309 313 314 311 309 309 310 309 310 311 310 310
304 306 302 302 302 306 307 308 311 310 310 309 310 308 308 310 309 310 311 310 308 309 312 313 309 312 313 310 307 311 312 312 314 316 314 313 311 310 310 310 311 312 311 310 310
298 302 301 300 302 304 305 308 308 310 308 307 307 308 308 308 308 308 308 308 307 308 309 309 311 311 312 312 313 314 314 314 315 315 318 314 312 311 310 311 311 312 312 313 317
302 302 299 300 302 303 303 305 307 308 307 308 307 306 305 305 306 307 306 306 307 307 309 307 309 313 313 311 311 312 313 313 312 312 314 314 314 312 312 311 311 310 311 312 317
301 300 300 300 302 303 302 304 305 305 305 307 305 305 306 306 306 306 306 306 305 307 306 307 307 309 312 312 313 314 313 314 315 314 314 315 313 312 313 311 310 310 310 311 313

GFSSW_925_thetae_060.txt.gz
Theta_e
309 309 309 309 310 309 310 309 308 308 306 303 303 303 304 305 308 311 308 305 309 304 308 310 308 308 308 309 313 321 329 330 328 327 326 324 324 323 324 324 322 323 323 322 340
309 309 309 309 309 310 310 309 309 308 306 302 302 304 306 309 313 311 312 304 306 310 308 307 307 309 305 309 312 317 320 325 326 326 326 325 324 323 322 322 322 322 321 323 324
307 307 307 307 307 307 309 309 309 308 306 302 302 305 306 314 311 311 311 307 309 311 307 307 308 310 308 309 311 312 317 321 323 322 321 321 321 321 320 321 322 320 320 320 322
310 311 310 310 310 310 309 309 308 305 304 302 304 305 308 313 312 313 310 309 308 308 308 309 309 309 307 308 308 311 311 316 317 317 316 317 316 317 317 317 318 319 319 319 321
311 310 311 311 311 310 309 309 308 303 300 301 305 309 312 313 315 315 312 309 310 308 311 311 309 308 308 308 308 309 309 310 310 311 311 312 313 314 315 315 316 317 318 318 319
310 310 310 311 310 310 310 309 307 302 300 301 306 311 313 308 312 312 313 310 312 312 312 311 310 307 307 308 308 307 308 308 308 309 310 311 311 312 314 315 315 316 315 314 317
310 310 310 310 310 310 309 308 305 301 300 302 307 313 312 303 312 313 312 311 311 312 311 312 310 308 307 308 307 308 308 306 307 308 309 310 311 312 313 314 315 315 314 314 316
309 309 309 309 309 309 307 303 302 301 301 303 309 313 309 309 313 312 310 309 310 311 311 311 309 307 308 307 305 307 304 306 306 308 308 311 312 313 310 311 312 312 312 312 312
307 307 306 307 308 306 304 304 309 305 304 306 312 310 314 314 313 310 309 308 308 308 310 311 308 306 305 305 305 305 305 307 308 307 308 310 310 309 310 310 311 311 311 311 310
305 302 303 305 306 304 305 312 312 311 311 311 313 312 312 314 313 310 310 308 308 307 306 306 303 305 302 304 308 309 309 308 308 308 309 308 308 309 309 309 309 309 310 311 311
304 304 304 306 305 306 308 309 304 305 314 308 313 310 312 313 311 309 309 308 307 305 305 305 305 307 307 305 307 308 309 309 308 309 310 309 309 308 309 308 307 308 309 309 310
302 304 305 306 305 308 310 309 309 308 307 307 307 311 312 312 311 310 309 308 307 306 305 304 306 306 307 307 307 307 307 310 309 310 311 309 309 308 308 308 308 308 308 308 308
303 305 305 306 307 308 309 310 310 307 306 307 308 309 309 310 310 309 307 307 307 305 305 305 306 307 308 310 310 310 311 312 311 311 308 308 306 307 308 308 308 308 307 307 307
304 305 306 306 307 309 310 310 311 308 310 314 311 310 309 307 309 309 309 308 306 305 304 305 306 308 307 309 310 310 311 312 310 309 308 309 309 307 307 306 307 306 304 305 308
304 306 306 305 310 309 311 311 310 309 312 314 309 309 307 308 308 310 308 306 307 306 305 307 306 307 307 309 310 308 311 310 310 309 308 307 307 306 306 307 307 306 307 310 311
307 308 306 309 309 310 311 311 311 312 315 309 308 307 307 308 308 309 308 307 306 306 306 304 305 306 307 311 310 308 308 305 304 306 307 307 308 306 306 308 307 309 310 310 310
310 311 306 306 307 310 312 308 312 313 309 308 307 307 307 310 310 310 309 308 307 307 307 307 306 309 310 309 307 305 304 306 306 305 307 306 308 306 306 307 307 312 312 310 309
311 310 308 309 312 313 309 309 315 313 308 307 307 306 309 310 310 311 310 310 311 306 305 308 308 310 312 309 308 307 305 307 310 310 305 306 308 307 307 307 309 311 311 311 310
313 314 314 314 314 312 306 312 312 312 311 310 307 308 310 311 310 311 311 313 311 310 311 311 311 309 310 309 307 308 308 305 307 306 306 307 307 307 308 308 309 311 311 309 309
311 311 313 313 311 309 308 313 312 311 310 309 307 309 310 311 311 311 312 313 313 311 308 310 312 311 310 309 308 307 306 308 305 312 313 309 308 309 307 307 307 310 309 308 308
309 309 311 310 308 306 310 312 314 311 310 310 308 309 309 311 310 311 311 312 312 312 310 310 311 311 311 310 308 307 309 309 305 305 308 308 309 306 308 308 309 307 307 308 308
304 309 310 309 307 302 308 310 309 309 310 310 308 308 309 310 310 310 311 311 311 312 312 311 311 313 312 309 308 306 308 308 305 307 313 312 312 309 307 306 307 307 308 310 310
303 304 309 308 305 304 304 307 308 309 311 310 310 309 308 309 310 309 311 310 308 309 312 312 310 313 310 307 306 311 311 308 307 307 312 314 312 307 308 308 308 307 309 310 310
300 304 300 298 300 304 305 306 309 308 309 307 308 307 307 308 308 309 309 309 307 308 310 312 310 312 311 308 305 310 310 310 311 315 312 313 312 311 310 310 308 310 310 309 309
297 300 300 299 300 303 303 305 308 308 306 305 306 305 306 307 307 307 306 307 307 307 307 309 312 311 310 311 312 312 312 312 313 313 315 313 313 312 312 310 310 310 309 309 309
300 299 298 299 300 302 303 304 305 306 306 306 306 305 304 305 305 307 307 307 307 306 308 306 308 310 312 312 312 312 311 311 311 312 313 313 313 311 311 310 310 309 309 310 310
299 298 300 299 300 302 300 304 304 303 304 305 305 303 304 304 304 303 303 304 305 306 306 309 308 309 311 311 312 313 312 311 311 313 313 314 313 311 310 312 311 310 310 309 309

GFSSW_925_thetae_063.txt.gz
Theta_e
308 307 308 309 309 308 309 310 307 307 308 307 307 306 307 309 309 312 312 306 308 305 306 309 308 309 309 313 317 325 327 326 327 326 325 326 326 325 325 325 325 325 325 324 323
309 310 310 310 310 310 309 309 309 306 306 306 306 306 309 310 313 313 312 306 309 306 308 308 309 309 311 312 316 322 322 324 325 326 326 326 325 325 324 325 325 324 323 322 321
309 310 310 310 311 311 310 309 310 307 303 304 304 307 308 313 314 312 310 304 304 311 307 307 309 312 310 312 314 317 319 322 325 325 325 325 322 322 322 324 325 321 321 320 321
309 309 309 310 310 310 310 309 309 308 303 301 302 306 311 314 312 313 309 308 309 308 307 308 309 311 311 311 312 314 315 318 320 322 320 323 317 319 319 321 319 318 318 320 320
308 310 310 310 309 309 309 309 309 307 302 300 304 307 311 313 315 315 311 309 309 308 311 312 310 311 311 310 310 312 313 312 313 313 315 315 318 318 317 315 315 317 317 318 319
308 308 309 310 309 308 308 309 309 306 302 301 305 311 313 309 311 313 314 311 311 311 313 312 312 311 311 311 311 310 311 311 311 312 312 313 315 315 316 315 315 317 317 318 319
308 307 307 308 309 309 309 309 308 306 303 303 306 312 312 306 311 313 313 312 311 312 312 312 312 310 311 311 310 310 311 311 311 312 312 312 313 314 312 314 314 315 315 315 316
307 306 305 305 307 309 308 307 304 303 301 303 309 313 310 306 312 313 312 311 311 312 312 310 309 309 310 309 309 310 309 310 309 310 311 312 315 313 312 313 313 313 313 314 315
304 305 304 305 307 306 305 309 311 304 302 306 312 311 314 313 313 310 310 309 307 308 310 309 309 309 309 310 311 310 309 310 312 312 312 312 312 312 312 312 313 313 313 313 315
304 305 306 305 306 305 309 311 311 310 311 312 313 314 313 315 314 311 309 308 308 308 309 309 309 310 310 311 312 312 311 311 312 312 313 312 312 312 312 311 312 313 313 313 314
304 306 306 306 305 306 310 308 310 309 315 311 312 312 311 312 311 309 309 308 309 309 309 308 310 311 311 311 311 311 311 311 311 311 312 312 312 311 312 312 312 312 313 314 313
304 305 306 307 306 308 308 311 310 310 312 309 310 311 311 311 311 312 309 310 309 310 307 308 310 310 309 309 309 310 310 311 313 312 311 311 311 311 311 312 312 312 312 313 312
305 305 306 306 308 309 309 309 309 307 311 310 309 310 310 311 311 312 309 309 310 309 307 308 309 308 309 310 311 311 312 313 311 311 311 311 309 311 310 310 311 312 312 311 311
304 306 307 307 308 309 310 309 310 306 315 313 312 311 310 310 310 310 309 310 308 309 307 308 308 309 309 310 313 312 313 312 311 311 310 310 307 310 310 310 311 312 314 314 313
308 308 305 308 310 310 309 311 309 309 316 314 310 309 308 310 310 310 308 309 310 309 308 309 309 309 309 310 312 311 312 312 311 311 311 309 310 310 310 310 312 311 313 315 315
310 308 306 310 309 308 311 310 311 318 316 311 309 309 309 309 309 310 310 308 308 309 308 309 307 308 309 312 311 311 311 309 309 311 310 309 310 310 310 311 312 310 311 313 316
310 307 307 308 309 312 311 310 317 318 310 310 309 310 309 312 311 311 311 310 310 310 311 309 308 309 311 311 311 310 311 311 310 309 308 310 310 310 310 311 311 310 311 313 315
312 312 312 313 313 313 309 314 320 313 309 310 309 310 310 312 312 312 312 312 312 309 310 312 311 312 313 311 311 311 311 312 311 309 308 309 310 310 310 310 311 311 313 314 313
311 313 313 312 311 311 312 317 316 313 311 311 311 310 311 312 311 311 313 313 313 312 313 312 310 310 311 311 311 311 312 310 311 311 312 310 310 310 310 311 311 312 314 313 313
309 310 312 310 309 309 314 315 315 312 311 310 310 309 311 310 311 311 312 313 313 313 312 313 315 312 311 310 309 311 310 312 313 313 312 310 310 310 310 310 311 313 312 312 313
308 314 310 309 308 312 316 314 314 313 310 312 311 310 310 311 311 312 312 312 312 313 313 313 315 313 312 312 312 311 312 313 313 314 313 312 310 311 311 311 312 311 312 312 314
306 312 309 308 313 307 313 310 308 310 310 311 311 311 311 311 312 311 311 310 312 312 315 313 314 315 312 311 310 310 312 313 316 315 315 315 313 311 311 311 311 312 312 312 314
307 309 308 307 314 310 307 307 307 309 311 311 311 310 310 311 312 311 311 310 310 312 312 314 316 316 312 310 310 312 311 312 312 313 313 315 314 311 311 312 313 313 313 313 314
304 307 304 304 303 305 305 305 310 309 309 308 309 308 309 309 310 310 310 309 308 309 309 311 314 314 313 311 311 312 312 312 313 317 314 314 314 313 313 314 314 314 314 314 313
302 304 302 302 303 304 305 306 308 309 307 307 308 307 308 309 309 309 309 308 308 308 309 311 312 312 312 312 312 312 313 313 313 314 315 313 313 313 313 314 314 314 314 313 313
303 303 301 303 302 304 304 306 307 307 306 305 306 307 307 308 308 308 307 307 308 308 310 312 313 313 313 313 313 313 312 311 311 312 313 314 315 313 314 314 314 313 314 314 313
298 298 303 301 302 303 302 304 305 304 304 305 306 305 305 304 305 306 306 307 307 309 310 311 312 312 311 309 311 312 312 312 312 312 313 316 314 314 314 313 314 314 313 313 312

GFSSW_925_thetae_069.txt.gz
Theta_e
311 310 310 311 310 310 310 310 312 311 311 307 303 303 302 303 305 316 321 317 313 310 307 312 315 315 316 320 322 323 326 328 329 328 329 329 329 327 327 327 329 328 328 330 327
310 310 310 310 310 310 310 310 311 311 311 307 303 301 301 304 315 320 316 312 308 305 310 311 313 316 318 319 322 323 324 324 325 327 328 327 329 329 328 327 327 328 328 328 327
309 309 310 310 309 310 310 310 310 311 311 306 301 300 303 308 322 317 309 307 307 311 314 312 312 316 317 320 321 322 323 323 323 324 326 327 327 329 329 329 326 327 328 327 326
309 309 309 309 308 309 310 309 309 311 310 305 300 301 304 315 324 318 311 309 308 316 313 313 313 314 317 319 320 321 322 323 323 323 323 325 326 328 329 329 328 325 327 326 326
308 309 307 307 307 308 308 309 309 309 309 302 300 303 314 320 319 314 311 311 317 315 315 314 314 314 315 316 318 319 320 321 321 321 322 323 325 327 328 328 327 326 324 326 326
304 305 306 307 308 309 309 308 308 309 306 300 300 305 317 316 316 318 316 317 316 314 316 316 316 315 315 316 316 317 317 318 319 320 319 321 322 323 325 326 326 323 324 325 328
305 305 307 307 308 309 309 307 307 305 303 300 302 312 316 315 314 316 316 315 315 314 315 315 315 315 316 315 316 316 316 317 317 318 319 319 319 319 320 321 323 323 323 325 328
306 306 307 307 308 308 307 309 310 304 300 301 305 316 317 311 312 313 315 315 314 314 314 314 314 315 315 316 315 316 316 316 317 317 317 317 318 319 320 320 321 321 322 323 327
306 306 307 307 307 307 310 309 307 304 301 303 315 319 319 311 310 313 314 314 313 313 313 313 313 315 315 315 315 316 315 316 316 317 318 318 318 318 319 320 320 320 321 322 325
306 307 307 307 306 309 312 315 311 309 310 313 316 318 317 315 313 314 313 313 312 313 313 314 314 315 316 315 316 316 317 316 316 317 317 317 317 318 319 319 319 320 320 320 324
307 308 307 307 307 310 313 316 320 323 318 320 318 318 317 315 315 314 313 313 313 314 314 316 315 315 316 316 316 315 316 318 318 316 317 318 318 318 319 319 319 319 319 320 322
306 307 307 306 309 310 311 317 315 315 318 317 315 315 314 315 315 315 313 314 314 314 315 315 315 314 314 315 315 316 316 316 316 316 316 317 317 317 318 318 319 319 319 319 319
308 307 306 307 310 313 316 315 314 315 319 318 315 314 314 315 315 315 315 314 314 315 315 315 315 314 314 314 314 314 315 316 316 317 317 317 317 317 317 317 317 318 318 318 319
308 306 306 309 311 315 317 314 314 315 321 320 315 316 314 315 315 314 314 314 314 315 315 316 315 314 313 313 314 315 315 315 315 316 317 317 317 318 317 317 316 317 317 318 318
308 307 308 310 317 317 315 314 314 316 330 317 316 315 315 315 315 315 314 314 314 315 316 315 315 314 313 313 314 314 315 315 316 317 317 316 316 316 317 317 316 316 317 318 320
301 309 308 314 316 314 314 314 316 326 328 318 315 314 315 314 315 315 315 314 315 315 315 316 316 315 314 314 314 314 314 315 315 315 316 316 316 316 317 316 316 317 317 317 317
299 307 308 313 316 315 315 316 323 325 318 316 315 315 315 315 316 316 316 317 316 317 317 316 316 316 315 314 314 314 315 317 317 317 318 317 316 316 316 316 316 317 315 315 316
300 304 315 314 315 315 316 320 324 319 318 316 315 315 315 316 316 317 316 317 317 317 318 318 318 316 317 315 314 316 317 317 321 321 320 317 316 316 315 315 314 314 314 316 317
306 314 316 318 315 314 319 321 321 320 316 315 315 315 316 316 315 316 316 316 316 316 320 323 317 317 316 316 315 315 318 317 318 319 318 318 319 317 316 315 314 314 315 318 317
311 316 318 315 315 315 320 320 318 317 316 315 315 316 317 316 316 316 316 315 316 315 317 317 317 317 316 316 315 316 316 319 318 318 318 317 317 317 317 316 314 316 317 317 317
314 318 317 314 315 317 319 318 316 314 314 315 315 316 316 316 316 316 315 314 314 315 316 316 319 318 316 318 317 316 316 317 318 324 324 321 318 317 316 316 316 316 316 316 317
314 317 315 312 317 318 316 314 309 310 310 311 312 313 316 315 316 315 314 314 314 315 314 315 319 320 315 315 316 317 320 321 325 322 320 318 318 316 316 316 316 316 316 317 317
314 314 314 310 318 316 313 311 309 309 310 313 314 314 314 315 315 314 313 313 313 313 313 317 318 320 317 316 318 317 316 316 317 320 322 324 321 317 317 317 316 316 317 316 317
312 315 315 313 312 312 312 312 310 309 310 311 312 312 313 313 313 313 313 312 312 312 313 313 317 316 318 316 317 318 317 316 316 322 317 317 316 316 317 317 317 317 317 317 318
312 314 312 313 313 312 311 311 310 310 310 310 310 311 311 312 312 312 311 311 311 312 311 312 314 314 314 312 312 312 312 314 316 317 317 316 315 316 316 317 316 316 316 316 316
308 310 310 311 312 312 311 311 310 309 309 309 308 308 309 311 311 311 310 311 311 311 311 312 316 313 315 313 312 314 313 313 312 313 314 313 314 314 314 315 315 316 318 317 317
304 305 308 312 313 312 311 309 307 307 306 307 307 308 310 310 309 309 309 310 310 311 311 313 316 316 318 313 314 315 312 312 313 313 312 312 313 314 313 315 317 317 319 318 317

GFSSW_925_thetae_072.txt.gz
Theta_e
310 310 310 311 311 311 311 311 311 312 312 310 306 303 301 302 305 314 319 319 317 316 313 310 314 316 316 318 320 321 325 327 326 327 328 328 328 328 327 325 327 329 329 329 329
310 310 310 310 310 310 310 311 311 310 311 310 306 302 301 304 313 317 318 315 311 309 308 310 312 316 317 318 319 321 324 324 324 325 326 327 327 328 328 328 327 329 329 328 328
310 309 310 309 309 309 309 310 309 310 310 309 304 300 301 306 320 321 311 309 308 306 316 316 314 314 316 319 319 320 322 322 322 323 323 324 326 327 329 330 329 328 329 329 328
307 306 307 307 308 309 310 310 310 311 310 305 300 300 303 313 326 316 311 311 310 312 318 315 314 314 315 317 319 320 320 321 322 322 322 323 324 324 326 328 329 328 328 328 328
307 307 307 307 308 309 309 309 309 309 308 303 300 300 312 321 320 313 311 310 313 317 318 315 314 314 314 316 318 319 320 321 322 322 322 322 322 323 323 326 328 329 327 327 327
306 307 307 308 309 310 310 310 308 308 305 302 300 303 315 319 319 315 315 316 320 315 317 317 317 317 316 316 316 317 318 319 320 320 320 321 321 321 323 325 326 328 329 326 327
306 306 307 308 309 309 309 309 309 306 302 300 300 312 315 317 313 318 316 316 316 315 316 316 316 316 316 316 316 317 317 317 317 318 318 319 319 319 321 323 324 325 327 326 326
306 307 307 308 307 307 307 310 311 311 301 300 302 314 318 315 314 314 318 316 316 315 315 315 315 315 316 316 316 316 317 317 317 317 318 318 318 319 320 321 321 321 322 324 325
307 307 307 308 307 307 311 310 306 307 301 302 311 317 319 312 312 313 314 315 315 315 314 315 314 314 315 316 315 316 315 317 317 317 317 318 318 318 319 320 321 322 322 322 323
305 307 307 308 307 309 311 313 314 305 305 312 315 320 320 317 315 311 314 315 315 314 314 314 315 315 315 315 315 316 316 316 317 318 318 318 318 318 319 319 321 321 321 322 322
305 307 308 307 308 309 312 317 320 323 321 321 322 320 319 317 316 316 314 314 314 314 315 316 316 317 317 317 317 317 317 316 317 318 319 318 318 318 319 319 319 320 322 323 323
304 307 307 307 309 309 309 319 317 316 318 318 319 318 316 316 316 316 315 315 315 315 315 316 316 317 316 315 315 316 317 317 317 317 318 318 317 318 318 319 320 321 322 322 322
303 306 306 307 310 310 316 317 316 316 319 319 319 316 316 315 316 316 315 315 315 315 316 316 317 317 317 315 315 315 315 316 316 316 317 317 317 317 318 318 319 320 322 322 322
299 307 307 309 312 317 318 317 315 317 321 323 317 316 315 315 316 316 316 316 316 316 315 316 316 316 317 316 315 315 315 315 316 316 316 317 319 320 320 321 320 320 320 320 320
298 305 308 309 313 317 317 315 314 318 333 320 318 316 316 315 317 316 316 316 315 315 316 316 316 316 316 315 315 315 315 315 316 317 318 317 317 317 319 318 318 319 318 320 319
299 299 308 313 315 318 316 316 316 326 332 320 317 315 315 316 316 316 316 316 315 315 316 316 316 316 316 316 315 315 315 315 315 316 318 317 318 319 318 319 319 320 318 318 318
301 301 302 312 317 316 317 317 324 328 322 319 317 316 316 316 316 317 317 317 317 317 318 318 318 318 318 316 316 315 315 315 317 318 320 318 320 321 319 319 318 319 318 319 318
304 306 304 312 316 316 317 320 324 322 321 319 317 316 316 316 316 317 317 317 318 317 319 321 324 320 320 320 319 319 318 317 318 319 317 319 326 321 321 317 317 318 319 318 316
307 317 314 318 318 315 319 322 322 321 320 318 316 315 316 317 317 317 317 317 317 317 319 319 319 318 319 319 319 320 320 317 321 320 319 319 321 320 320 319 316 316 315 315 317
305 318 319 319 317 316 318 321 321 319 318 316 316 316 316 317 317 317 317 317 316 316 317 318 319 315 315 318 318 320 319 323 323 326 323 319 317 319 319 321 319 316 315 317 320
310 320 320 317 315 317 320 321 320 317 314 312 314 315 315 315 315 317 317 316 316 316 317 318 320 318 316 315 319 318 321 318 319 323 322 321 319 319 319 319 319 316 316 317 319
311 320 318 313 315 320 321 317 313 314 313 312 312 312 313 316 317 317 316 315 315 315 316 317 320 320 315 315 315 316 316 320 324 324 322 323 322 319 318 317 320 316 316 317 317
311 317 317 313 318 318 316 315 315 314 312 311 313 314 314 314 315 314 314 314 313 314 315 315 316 318 316 317 318 318 317 316 318 320 320 323 321 317 319 319 318 318 318 317 319
312 316 317 316 316 315 315 315 314 314 312 310 312 313 313 313 314 314 313 312 313 313 314 313 313 313 316 315 315 319 316 316 317 324 322 318 317 316 319 318 317 318 318 318 319
314 315 315 315 315 315 315 315 314 314 312 312 312 312 311 312 311 312 312 312 313 317 313 313 314 313 312 312 313 312 312 314 316 316 316 315 315 316 317 318 318 318 318 316 317
312 310 311 312 315 316 314 315 314 312 311 309 309 309 310 310 311 312 311 311 311 311 312 314 316 314 315 314 313 314 314 315 313 313 312 313 314 315 316 315 315 317 318 317 319
308 307 309 311 314 314 316 314 311 310 308 308 308 308 309 309 310 310 310 310 311 311 312 312 313 316 318 315 313 315 317 315 316 316 314 315 316 317 318 315 317 319 319 320 320

GFSSW_925_thetae_078.txt.gz
Theta_e
308 307 308 308 308 309 309 309 310 311 311 311 312 311 305 300 301 306 311 310 316 310 313 316 312 310 311 310 314 315 314 316 318 320 322 322 322 322 321 320 326 327 326 327 326
308 309 309 308 308 309 309 309 310 310 310 310 312 309 301 302 307 311 308 313 317 316 315 312 308 307 310 311 313 313 313 316 317 318 319 319 320 320 320 320 322 324 326 326 325
308 308 308 309 308 309 309 309 310 310 310 311 311 305 300 305 313 318 320 314 317 315 309 308 309 308 309 312 311 312 315 315 316 317 317 318 320 320 319 319 321 323 324 325 323
308 308 308 308 309 309 309 309 310 311 311 310 309 302 302 311 321 315 320 318 311 307 311 316 316 312 309 309 308 312 313 314 315 316 317 318 319 319 318 319 322 321 322 324 322
307 307 308 308 309 309 309 310 309 309 310 310 308 301 311 314 316 313 312 310 310 309 313 316 315 309 309 309 309 309 310 313 314 315 315 316 317 318 318 318 319 319 323 322 322
306 307 308 309 309 310 308 308 309 309 310 309 308 306 313 307 308 317 311 310 311 314 317 316 316 310 310 309 309 310 310 310 311 311 312 315 316 317 318 318 318 320 320 322 321
301 305 307 309 308 308 307 308 309 308 310 307 304 310 312 305 315 315 311 313 315 318 318 316 313 312 311 311 311 311 311 310 311 312 312 313 313 314 314 315 316 316 319 321 322
297 299 305 307 308 307 308 310 312 309 308 301 301 312 310 306 309 311 313 315 316 316 316 315 315 312 312 310 309 311 309 309 310 313 312 312 313 313 312 314 315 315 316 320 322
297 298 305 306 306 308 309 310 311 309 302 300 307 312 314 318 316 314 314 314 316 316 315 314 313 311 310 309 307 308 310 310 311 311 311 313 313 313 312 313 313 314 314 316 320
300 299 302 305 306 308 309 310 312 313 307 312 312 312 314 319 316 315 312 313 313 313 313 313 308 310 307 307 309 310 310 310 311 311 311 310 311 313 313 312 313 314 314 314 314
304 302 300 306 306 307 309 311 313 316 315 316 317 314 317 320 315 313 312 312 313 313 311 310 309 309 309 309 311 311 311 312 312 312 313 312 312 312 312 312 312 313 311 312 313
307 306 302 303 307 309 309 311 315 315 312 316 317 315 317 319 320 314 314 312 312 311 311 310 310 311 311 312 313 313 313 312 311 312 313 311 311 312 312 312 312 311 312 314 315
307 307 304 302 307 310 312 313 317 317 313 316 316 319 319 318 320 317 314 313 312 311 311 310 312 313 313 313 313 313 312 312 312 313 312 312 312 312 312 313 312 313 313 313 313
308 307 305 305 309 311 311 315 315 315 317 320 319 318 316 314 314 314 315 313 312 312 311 310 312 313 313 313 313 313 318 317 315 313 312 312 313 312 312 312 313 312 310 310 312
309 307 306 304 303 308 315 316 316 316 321 324 317 316 311 312 314 315 314 313 313 312 311 313 312 312 313 313 318 318 318 318 317 314 311 312 311 312 312 313 313 311 311 311 311
310 308 306 307 307 312 314 316 316 320 327 323 315 314 312 313 314 314 315 313 313 312 312 312 312 312 313 317 318 318 318 316 316 309 313 312 311 313 312 312 313 314 316 315 314
310 309 308 307 308 313 313 314 317 323 322 320 316 315 314 314 314 314 314 313 313 312 312 313 313 313 318 319 317 316 316 320 319 319 318 314 312 312 312 312 314 314 315 314 315
311 309 314 315 304 307 314 317 321 319 320 318 316 316 317 315 313 314 314 312 311 312 313 315 317 316 319 318 318 318 316 315 321 319 317 318 319 315 314 314 314 316 314 312 313
310 309 313 317 307 308 312 318 321 321 320 315 315 315 314 313 313 312 312 314 315 314 315 315 317 316 317 317 316 320 321 318 321 320 322 319 318 316 315 315 317 316 316 314 310
309 308 313 318 315 315 313 317 317 318 315 315 313 314 311 310 310 311 312 315 316 315 313 315 315 316 317 317 316 317 316 318 318 315 321 320 321 318 317 316 318 316 314 315 313
307 308 317 319 318 313 315 316 317 317 314 314 313 312 311 311 311 312 314 315 315 313 313 314 315 316 314 315 314 314 316 317 316 315 314 319 317 318 318 317 317 317 316 314 314
303 308 311 316 314 315 319 320 313 315 314 313 312 312 312 312 314 314 314 314 313 312 313 315 314 316 315 313 314 316 316 315 315 319 322 320 319 315 315 316 315 315 316 315 315
305 306 311 313 313 315 314 314 315 315 314 314 313 311 311 312 311 314 313 313 311 312 313 315 313 311 310 309 311 314 316 317 316 313 315 312 313 312 313 312 313 314 315 316 316
304 312 311 309 310 310 313 316 316 316 315 310 310 310 308 309 309 310 310 311 311 314 317 311 309 309 311 310 308 313 315 315 316 312 313 316 315 313 314 314 315 313 312 314 316
308 312 307 309 309 309 311 313 314 315 312 310 309 309 308 308 308 308 309 310 310 316 311 308 310 310 310 312 313 313 312 312 313 314 315 313 313 316 316 314 314 313 314 313 314
311 311 306 308 309 312 313 314 313 312 313 311 308 307 307 307 307 309 307 307 309 309 308 306 309 311 312 312 311 313 312 311 311 312 313 315 316 315 315 313 314 314 316 317 316
303 305 307 308 310 311 313 313 313 312 311 311 310 308 307 306 307 306 304 305 306 307 306 307 307 309 311 312 312 313 314 317 317 317 316 316 316 315 315 316 315 314 315 315 315

GFSSW_925_thetae_084.txt.gz
Theta_e
308 308 308 308 308 308 309 309 309 309 309 309 310 311 310 311 308 306 307 303 309 308 313 313 314 309 309 308 311 311 313 315 318 319 320 318 318 319 319 318 319 319 318 322 324
308 308 308 308 308 309 308 308 308 309 309 310 310 310 309 309 307 307 308 305 314 308 309 314 310 307 308 310 310 312 310 313 314 317 317 316 316 316 317 317 317 317 317 321 323
307 308 308 308 309 309 308 308 309 309 309 309 309 308 308 310 309 316 317 308 311 313 313 310 308 305 308 310 310 310 311 311 314 315 314 314 315 315 316 316 316 317 317 317 322
307 307 308 308 308 309 309 309 309 309 309 308 308 306 308 311 317 315 317 311 315 317 311 307 312 309 307 308 309 312 311 312 313 313 313 313 314 315 314 315 315 315 315 317 318
305 307 307 308 309 309 309 309 308 309 309 308 307 306 308 307 305 311 315 313 313 310 308 313 312 307 307 306 307 309 309 309 309 308 309 310 311 312 312 313 314 314 314 315 316
305 305 305 306 307 308 308 308 309 308 309 309 307 309 311 301 306 313 315 313 308 308 311 314 312 308 310 309 309 306 308 309 309 309 309 311 312 311 313 314 313 313 313 313 316
306 305 305 303 304 306 308 308 309 310 310 311 307 310 310 299 309 313 313 309 310 313 315 315 315 311 309 311 309 309 310 308 309 310 310 308 310 311 311 311 312 313 312 312 313
308 306 304 301 302 305 306 308 308 310 308 311 308 311 304 305 311 311 312 310 310 311 314 316 313 310 310 308 306 308 305 308 308 309 310 310 310 311 310 310 310 311 311 312 312
308 307 306 304 301 302 306 308 308 311 307 304 309 310 312 313 314 313 314 312 313 314 314 314 310 308 307 306 306 304 307 309 309 309 309 310 310 310 310 309 309 309 309 310 310
309 309 309 306 305 302 304 311 311 312 310 310 311 309 311 314 317 315 313 312 312 312 311 310 305 307 303 305 308 308 309 308 310 310 308 308 308 308 308 308 309 309 308 308 309
309 310 311 307 305 305 304 311 309 311 313 312 313 309 313 315 317 311 313 310 311 311 310 308 309 309 308 307 308 309 309 309 309 309 310 309 310 309 308 308 307 308 308 308 308
309 309 310 309 306 306 306 308 313 313 314 313 314 312 313 314 315 316 311 310 309 309 309 308 308 308 308 308 309 309 309 309 309 310 308 309 311 308 308 308 308 308 308 308 308
309 309 308 311 305 305 309 312 313 312 313 313 314 314 314 313 315 316 308 308 309 308 308 308 310 310 309 310 311 310 310 310 310 313 311 310 312 312 310 308 308 308 307 308 308
309 309 307 310 307 308 308 312 312 313 313 314 317 316 316 314 315 316 311 312 311 310 308 308 308 310 310 310 309 310 309 311 316 315 316 312 317 313 312 310 309 308 308 307 307
308 308 306 308 307 303 311 311 313 313 317 318 317 316 314 315 313 315 313 312 312 311 309 310 310 310 310 310 310 311 312 315 317 315 312 313 309 314 311 312 309 311 308 308 307
305 305 306 308 307 309 307 312 313 318 320 320 314 314 315 313 313 311 313 312 311 310 310 310 310 309 310 311 311 315 316 315 312 311 314 313 311 314 312 311 310 310 309 308 309
305 305 308 307 308 311 308 312 315 321 315 317 315 314 311 312 312 312 312 311 311 312 311 311 311 310 311 314 315 312 312 314 314 314 317 313 314 313 311 312 311 313 313 310 307
308 309 308 307 309 308 313 315 315 314 318 315 314 314 315 312 312 312 312 310 311 309 310 311 313 313 317 314 314 313 313 314 316 316 315 314 316 313 310 311 313 312 312 310 309
308 309 308 312 312 310 310 315 310 320 314 314 314 314 313 311 311 310 310 310 311 310 311 313 314 314 317 315 313 316 316 313 314 312 312 313 313 312 311 313 313 313 313 312 311
306 304 309 310 309 311 308 310 314 316 314 314 313 312 312 310 310 310 309 312 314 313 310 311 313 312 316 314 314 315 314 316 311 313 314 313 312 312 311 313 314 313 313 312 311
305 306 310 311 313 309 313 314 316 316 316 314 312 312 311 311 311 312 312 313 312 311 310 311 311 312 313 313 313 315 316 313 310 311 312 315 312 309 313 315 312 312 312 312 312
302 310 310 310 314 308 314 313 313 316 316 316 313 312 311 311 312 313 314 314 311 310 310 312 314 313 313 310 311 310 312 312 311 312 316 315 314 310 309 311 311 312 313 312 313
302 302 310 309 313 308 309 312 313 315 316 315 314 313 310 310 309 311 312 311 310 310 311 313 312 313 312 309 310 314 314 311 309 307 311 315 312 309 309 309 311 311 312 312 314
303 308 304 302 304 308 311 312 314 313 315 315 315 312 312 312 308 309 308 309 309 308 313 315 311 312 313 312 308 309 311 313 311 305 312 313 312 311 310 311 312 311 310 312 313
303 308 305 306 307 308 309 313 313 313 314 313 315 314 312 312 307 307 308 307 308 308 309 308 309 309 309 309 308 308 309 309 311 311 312 311 311 310 311 312 311 311 310 311 311
304 306 304 306 308 310 310 313 312 314 314 313 314 313 312 314 311 311 309 307 306 307 307 304 307 309 309 309 309 310 310 310 310 310 309 310 311 310 313 311 311 310 310 310 309
302 304 306 308 309 309 311 311 313 311 311 312 313 312 313 312 311 308 306 305 304 305 305 304 305 306 308 309 310 310 310 309 312 313 312 315 314 315 313 313 311 309 308 306 307

GFSSW_925_thetae_087.txt.gz
Theta_e
308 309 308 308 308 309 309 309 308 309 309 309 310 309 310 309 308 307 306 303 305 306 313 314 310 309 309 312 314 315 320 320 320 321 321 321 321 320 320 320 321 321 322 322 324
308 308 308 308 309 309 309 309 308 308 309 309 309 309 308 309 308 308 306 303 312 308 312 313 311 310 312 312 314 317 319 319 318 319 320 319 319 318 318 318 319 319 320 320 320
308 308 309 309 308 309 309 309 309 308 309 309 308 308 308 309 311 317 316 305 312 309 313 311 307 309 312 312 313 313 318 316 316 317 318 317 317 317 317 317 318 318 319 319 319
308 309 308 308 308 308 308 309 309 309 309 309 308 308 309 310 317 311 316 307 312 313 310 309 310 310 311 313 313 314 314 314 315 315 316 315 315 315 315 316 316 317 318 318 319
308 310 309 306 309 309 309 309 309 309 309 309 308 307 308 308 307 314 312 312 316 316 309 312 312 311 312 311 310 313 312 312 313 312 312 313 313 314 314 315 316 316 317 318 319
307 308 308 304 304 308 309 310 309 310 309 310 309 309 311 303 304 315 311 314 310 308 312 314 315 311 311 312 312 310 311 312 313 313 312 313 314 313 315 316 316 316 317 317 318
309 307 306 306 302 303 306 308 309 309 310 311 308 310 310 303 308 314 314 310 307 310 314 314 315 313 312 313 311 312 313 312 313 313 313 313 313 313 314 314 315 316 316 316 317
309 309 308 307 306 303 305 306 307 309 311 311 308 311 307 304 308 310 314 309 309 312 314 315 313 312 312 311 310 312 311 313 313 311 312 312 314 314 314 314 315 314 315 316 317
309 309 308 309 306 306 303 307 310 309 312 310 310 311 312 312 312 311 313 311 311 312 313 314 312 311 311 313 313 311 312 312 314 312 313 313 314 314 315 315 315 316 315 315 316
309 309 309 307 308 306 305 313 311 313 310 310 311 312 311 315 315 313 313 312 313 313 312 312 312 314 311 313 312 312 313 313 314 314 313 314 315 315 316 315 315 315 315 316 316
309 308 309 307 307 307 306 311 313 314 314 318 315 311 313 315 316 313 311 311 312 313 315 311 314 315 315 313 312 312 313 314 314 314 313 315 316 316 316 316 316 316 316 317 317
308 307 306 306 307 306 305 312 314 313 317 314 315 314 313 314 315 315 311 313 312 313 312 313 314 314 314 312 311 312 313 314 314 314 314 316 316 317 317 316 316 316 316 317 318
306 305 305 306 307 307 308 312 313 312 316 315 314 315 316 315 316 316 312 311 312 312 312 314 313 312 312 312 313 314 314 315 315 314 316 317 317 317 316 315 316 316 316 316 316
304 304 306 307 308 305 308 311 311 312 317 315 317 317 315 315 315 315 311 312 312 312 311 312 313 312 312 313 313 315 314 314 314 316 317 317 318 318 317 316 316 317 317 316 315
303 306 307 307 307 307 310 307 312 313 318 318 317 315 316 316 315 317 313 313 313 314 313 315 313 313 313 314 313 315 313 314 316 318 319 317 318 318 317 317 317 316 316 318 318
305 307 306 308 306 309 307 310 313 319 318 319 316 316 317 317 314 314 317 314 314 314 313 314 312 313 314 313 313 316 316 317 317 318 319 318 319 318 317 316 315 316 317 317 316
306 307 306 306 309 309 308 314 317 317 317 316 315 314 315 316 316 314 315 317 317 316 316 315 315 314 312 314 316 317 317 318 319 319 320 317 317 317 316 316 315 316 317 317 316
307 309 307 307 308 308 312 318 315 317 317 315 314 314 317 314 313 313 313 314 313 314 315 315 316 314 315 314 316 318 318 319 322 320 319 317 318 317 316 315 315 316 317 315 315
308 309 308 308 312 309 316 317 312 319 315 315 314 316 316 311 312 312 312 312 312 313 316 315 315 315 317 317 316 319 320 318 320 320 321 317 316 315 314 314 315 316 315 315 316
306 305 308 309 311 311 314 313 315 317 316 316 317 314 314 313 316 315 314 314 315 314 313 315 316 314 316 317 316 318 317 321 321 320 318 314 314 313 312 314 316 314 315 315 316
307 311 309 310 311 316 321 316 316 317 317 317 318 317 315 316 316 313 313 313 313 312 313 314 316 315 315 317 316 319 320 319 317 319 319 317 312 314 314 313 313 315 314 315 316
305 314 310 311 320 312 317 313 312 316 316 317 317 314 313 313 315 315 316 315 314 312 313 314 317 316 315 314 313 314 318 319 322 318 320 320 317 312 312 312 314 313 313 315 315
308 308 310 308 318 313 313 313 313 316 316 317 318 317 316 316 314 313 312 311 310 311 312 314 314 316 315 313 313 316 315 316 316 315 314 317 315 313 313 312 312 312 314 315 315
309 314 310 308 308 311 311 314 315 312 314 315 317 315 315 314 314 315 313 309 309 308 312 313 314 315 316 314 313 315 315 315 316 319 318 317 314 313 313 312 312 314 315 315 314
308 311 308 311 311 310 310 311 311 312 313 313 315 315 315 316 314 316 313 313 311 310 310 311 314 312 312 312 313 312 312 312 316 315 316 314 313 313 312 312 312 315 315 314 312
310 308 306 307 308 309 310 312 312 313 312 314 314 313 314 314 312 315 313 312 311 308 309 310 311 312 311 309 309 309 308 309 311 312 313 313 313 311 313 315 316 315 315 313 312
302 304 307 307 308 309 311 310 310 308 309 311 311 311 313 311 311 310 311 311 310 310 308 309 310 310 309 308 310 311 309 309 309 310 310 312 313 316 317 316 316 315 313 312 311

GFSSW_925_thetae_093.txt.gz
Theta_e
312 311 311 311 310 310 310 310 310 310 310 310 311 310 310 310 309 312 314 311 312 309 310 315 315 314 315 318 319 321 323 326 326 328 329 329 329 329 328 327 328 328 328 329 327
313 312 312 311 310 310 309 310 310 310 310 310 310 310 309 309 311 313 312 309 308 306 314 315 316 315 317 318 319 320 320 321 322 323 323 323 326 327 327 327 325 326 325 325 325
310 313 312 312 311 310 310 309 310 310 310 310 309 308 308 309 318 321 313 310 304 306 315 316 316 316 316 318 320 320 320 320 321 322 322 322 322 322 322 323 324 324 325 324 324
308 308 310 310 311 311 309 309 310 310 310 310 309 307 307 313 325 325 316 311 304 312 317 317 317 316 317 318 319 320 321 320 321 322 321 321 321 321 321 321 322 322 322 322 323
308 307 308 308 307 310 309 309 309 309 309 309 310 308 311 319 320 319 309 309 311 318 316 316 317 318 318 319 319 320 320 320 321 320 319 319 319 320 320 320 320 320 321 321 321
307 307 306 306 306 309 310 307 308 309 309 309 310 308 315 316 315 317 315 314 314 315 316 316 316 318 318 319 319 319 319 319 319 319 319 318 318 318 319 320 320 320 321 321 321
305 307 306 304 306 308 309 310 306 307 310 310 310 310 315 314 314 319 318 319 318 318 315 315 316 316 317 317 318 318 318 318 318 318 318 319 318 319 319 319 319 320 320 321 321
301 303 304 304 306 308 309 310 306 305 308 311 309 313 317 311 310 321 319 314 314 314 317 318 317 317 318 319 318 318 318 319 320 319 318 318 319 319 320 319 319 319 320 320 320
299 301 303 304 306 307 308 308 311 311 309 311 314 316 320 310 309 319 319 315 314 317 318 317 318 319 318 319 319 319 318 319 319 319 318 318 318 319 319 319 320 320 321 321 320
299 302 302 305 307 308 306 313 312 314 313 314 316 320 320 316 311 316 320 316 316 318 318 318 319 319 319 319 319 319 319 319 318 319 318 318 318 319 320 320 321 321 321 320 320
301 300 304 307 308 308 309 316 321 322 318 322 322 320 318 317 313 316 318 316 317 318 319 319 319 319 318 318 318 318 318 319 319 318 318 320 320 320 320 321 321 321 321 322 322
300 303 305 307 308 308 312 317 319 317 319 320 321 320 318 319 316 317 317 317 318 320 320 320 319 319 319 318 318 318 318 319 319 319 320 320 321 321 321 321 321 321 321 321 321
302 304 306 306 308 310 316 316 316 318 321 320 318 319 319 318 319 318 318 318 319 319 320 320 321 319 318 319 319 319 319 320 320 320 320 320 321 321 321 321 321 321 321 321 321
304 306 305 307 311 316 316 315 315 318 325 322 320 319 318 318 319 320 316 319 319 319 320 320 319 319 317 318 319 320 319 318 318 319 320 321 323 323 323 323 323 323 323 322 323
306 306 306 306 312 317 316 315 316 319 335 323 322 319 319 318 319 319 319 318 319 318 317 319 318 317 318 318 318 318 318 319 319 321 322 322 323 323 323 324 324 323 324 322 322
308 307 309 313 311 316 315 315 319 327 329 323 321 321 319 319 318 319 319 318 318 318 318 318 319 318 318 318 318 318 319 320 321 321 324 324 325 325 325 324 324 324 322 321 319
309 309 310 313 318 313 314 318 328 327 321 322 321 321 320 319 318 319 320 320 318 318 318 318 319 319 318 318 319 319 320 323 325 326 326 326 326 326 325 324 323 323 322 319 319
309 311 314 314 314 314 317 324 329 321 322 321 320 320 321 320 319 319 319 320 319 320 321 322 323 320 320 319 319 321 322 325 331 328 327 325 327 326 324 323 322 322 320 319 319
310 317 316 315 315 316 323 326 324 323 321 321 321 321 323 322 320 320 321 320 319 319 320 321 322 320 320 320 320 321 323 322 325 326 328 326 326 325 324 324 321 318 317 319 319
311 318 317 316 317 319 323 322 322 321 320 320 323 323 323 322 323 322 322 321 320 319 318 321 324 322 322 320 320 320 321 324 326 333 330 326 327 326 323 322 320 318 317 317 316
314 322 318 317 318 322 325 325 322 320 320 322 323 322 322 322 322 322 322 320 320 320 320 320 323 325 323 323 322 321 323 322 322 324 332 329 326 323 321 321 320 319 317 316 317
319 324 318 318 326 324 325 324 314 320 320 320 321 321 321 320 321 321 322 321 317 318 319 318 321 325 322 320 321 321 321 321 332 331 328 333 331 323 323 319 317 316 316 317 317
319 319 318 318 327 325 323 321 320 321 321 320 321 320 320 321 323 320 320 319 318 318 321 320 324 326 324 322 320 320 320 320 320 322 325 329 325 321 319 320 319 318 317 317 316
317 321 320 319 320 323 321 321 321 318 317 319 319 319 320 320 319 322 321 319 317 317 315 316 320 324 326 326 324 325 321 320 320 327 325 325 322 321 321 321 317 317 317 316 317
316 320 317 321 320 319 319 319 319 318 317 317 318 318 319 320 319 320 318 319 317 317 317 317 321 319 318 319 319 319 318 318 319 319 321 320 320 319 317 316 316 316 316 318 317
315 315 315 317 316 317 315 318 317 316 316 317 317 317 316 317 317 319 317 317 319 317 317 318 322 319 320 318 318 318 317 316 316 316 317 316 315 315 315 315 315 318 319 318 317
311 311 313 313 315 316 317 316 315 314 314 313 314 315 315 314 314 314 314 316 315 316 316 318 318 322 324 318 317 318 316 315 315 314 314 314 315 317 317 318 319 318 317 316 315

GFSSW_925_thetae_096.txt.gz
Theta_e
312 313 312 312 311 311 310 310 311 311 311 311 311 311 312 311 310 311 311 310 311 311 308 315 314 313 314 316 318 320 323 326 326 327 328 329 332 331 330 330 329 329 330 329 328
309 309 311 312 311 312 311 311 310 310 310 311 311 311 310 310 310 310 310 312 310 312 311 313 317 316 316 316 318 320 322 323 325 326 326 326 326 328 329 330 329 328 328 327 326
308 308 308 307 309 310 312 311 311 311 311 311 311 310 310 309 317 318 314 312 313 309 309 316 316 317 316 317 318 319 320 320 321 321 322 322 323 324 324 326 327 326 326 327 326
306 307 307 306 305 308 309 312 310 311 311 311 310 310 309 312 328 324 316 313 310 307 309 315 318 317 316 317 318 319 320 319 319 321 322 322 322 322 322 323 323 323 324 323 324
303 305 306 305 304 305 308 310 310 309 310 310 310 310 311 319 322 314 314 313 309 311 314 320 318 317 317 317 318 318 319 320 321 320 321 321 320 321 321 322 322 322 321 321 322
300 301 303 303 304 305 307 309 310 309 308 310 310 310 313 320 319 315 314 312 312 314 317 318 318 318 318 319 319 319 319 320 320 320 320 320 319 319 319 320 320 321 321 321 322
299 300 301 303 304 306 307 308 309 309 307 309 311 312 315 317 314 318 317 314 314 316 316 317 317 317 318 318 319 319 319 319 319 319 319 319 318 318 320 320 320 320 321 321 322
299 300 302 302 305 307 308 307 307 306 306 310 312 313 318 315 314 321 320 320 318 318 317 316 316 318 317 319 319 318 318 318 319 319 318 318 318 319 321 320 320 319 320 321 322
301 300 300 305 307 307 308 307 310 311 311 310 313 315 322 311 311 315 321 317 315 316 318 319 319 319 317 318 319 319 318 319 319 320 320 319 318 319 320 320 320 321 321 322 322
301 301 301 304 307 308 308 312 314 316 313 315 316 321 321 320 314 313 320 317 315 318 319 319 319 320 319 319 320 320 320 319 319 321 320 319 319 319 320 320 321 322 321 322 322
308 304 304 307 307 307 308 316 323 323 319 322 323 320 319 317 314 313 320 318 317 318 319 319 318 319 319 320 320 319 319 319 320 320 320 319 320 320 320 320 321 321 323 324 324
310 307 306 306 307 307 308 317 319 319 320 321 320 321 320 319 315 317 318 318 317 318 319 320 320 319 319 319 319 319 318 319 320 320 320 320 320 320 321 322 322 322 323 324 325
311 308 307 306 307 309 312 317 317 317 321 322 320 320 320 319 319 317 318 318 318 318 320 321 321 321 319 319 319 319 320 320 319 320 321 321 321 322 322 322 322 323 324 323 324
312 308 307 308 312 319 319 318 316 318 323 324 320 320 319 318 318 319 318 319 318 319 320 320 321 320 320 319 319 320 320 319 319 320 320 320 322 324 323 324 324 325 324 323 324
311 309 308 307 312 319 318 317 317 320 337 324 322 319 319 318 319 319 318 318 319 320 319 319 320 320 320 319 319 318 319 319 319 320 321 321 322 322 324 324 325 326 326 326 325
311 308 309 316 314 316 317 317 319 328 335 325 322 321 320 319 319 320 319 319 317 318 319 319 319 319 319 319 318 318 318 319 320 320 323 322 323 323 324 326 326 325 326 324 322
310 309 308 312 321 317 315 318 328 330 325 324 323 321 321 321 321 320 320 319 319 319 319 318 318 319 319 319 319 319 320 321 323 323 324 323 324 327 330 327 325 325 325 323 321
309 312 316 316 317 316 318 324 332 327 324 323 322 322 322 322 321 320 321 321 320 318 319 323 325 320 318 318 320 319 320 324 327 329 327 326 327 327 327 326 325 323 323 322 320
309 318 320 318 317 318 324 331 328 324 323 322 322 323 324 324 322 322 321 321 321 321 321 323 323 321 322 323 321 321 322 322 326 327 330 328 325 326 326 326 325 324 322 319 319
308 317 321 317 318 320 325 327 325 322 322 322 323 324 325 325 325 324 323 323 322 321 321 321 325 323 323 322 323 321 321 323 325 336 332 327 326 327 327 326 323 322 321 319 320
312 324 320 317 318 322 327 326 325 322 321 322 324 323 323 323 324 324 325 323 321 321 321 321 325 325 323 324 325 325 322 322 324 327 333 332 327 326 325 323 323 323 322 320 319
317 325 320 319 322 325 326 325 317 321 321 321 321 322 322 322 322 323 323 322 321 319 320 320 323 325 322 321 322 323 325 324 332 332 330 333 332 326 327 323 324 320 319 318 319
318 320 320 319 325 327 327 323 320 321 321 321 321 321 321 321 322 322 321 320 320 320 322 322 324 327 324 323 322 322 323 323 323 326 325 328 326 322 324 322 322 323 322 321 321
318 321 322 320 321 322 324 322 321 321 318 319 320 320 320 321 320 321 321 320 319 319 316 316 321 324 326 324 325 326 326 324 323 327 326 325 323 321 322 323 322 322 319 318 319
318 321 320 322 322 322 320 320 320 319 319 318 320 319 319 320 319 319 318 318 318 318 318 320 321 319 319 318 319 319 320 320 322 322 323 321 321 321 321 321 320 318 319 319 319
316 316 316 317 318 319 317 319 319 319 317 319 318 318 318 318 317 318 317 317 318 317 319 320 322 320 320 318 318 319 319 318 319 319 318 318 318 317 317 317 319 319 318 317 317
312 313 315 316 316 317 318 319 318 316 316 316 316 316 316 315 315 315 314 314 316 318 318 319 320 320 321 318 321 323 320 319 318 318 317 318 318 319 319 318 318 317 317 316 315

GFSSW_925_thetae_102.txt.gz
Theta_e
302 303 304 305 304 304 308 312 312 311 311 311 311 311 310 310 310 310 309 307 303 308 309 311 312 312 311 309 312 315 318 317 319 321 322 321 321 322 322 326 326 327 327 327 326
301 301 301 301 302 303 305 311 313 312 312 311 311 311 310 310 309 308 304 304 303 304 306 311 310 310 307 309 311 312 317 326 322 319 319 320 320 319 320 320 325 326 326 325 327
299 299 300 300 301 303 304 307 311 313 312 312 311 311 310 309 310 312 317 311 303 306 308 311 310 308 307 310 310 310 314 318 318 319 320 321 319 318 321 321 320 319 322 321 322
299 299 299 301 302 303 305 306 308 313 313 312 311 310 310 310 316 319 317 316 305 308 312 311 308 309 308 308 309 311 313 315 316 317 317 321 325 320 322 321 319 319 319 319 319
300 302 302 301 303 305 306 307 308 308 311 311 311 311 310 311 313 314 317 313 306 310 309 307 306 310 310 309 310 310 312 314 316 316 316 316 316 318 318 318 318 318 318 318 317
307 306 306 304 304 305 308 308 308 308 311 311 311 311 310 313 313 319 313 308 309 313 309 306 308 309 313 310 310 310 312 313 315 316 316 315 314 316 318 318 318 317 315 317 317
308 309 310 310 307 307 308 308 308 309 312 312 311 311 313 312 314 313 312 310 310 311 308 307 308 314 313 313 309 311 312 311 314 314 314 315 315 317 318 318 317 316 314 316 316
310 311 311 311 310 308 308 308 308 310 313 312 311 312 313 313 314 314 312 311 311 309 309 310 310 312 312 312 313 313 311 311 312 314 315 315 317 316 316 316 316 315 314 316 316
312 312 311 311 310 308 308 308 309 312 313 312 311 312 317 317 318 315 315 313 311 309 309 313 314 312 315 314 310 312 313 314 315 314 316 315 315 315 315 315 314 314 313 316 315
312 311 311 310 310 309 308 309 310 314 314 313 314 315 316 320 313 312 314 315 313 312 313 315 313 314 312 311 312 313 315 315 315 315 315 314 313 315 315 314 316 315 314 315 315
310 310 310 310 310 309 307 309 317 317 316 317 320 318 319 320 317 312 312 319 313 314 316 316 315 315 315 314 314 315 315 316 316 315 315 315 315 315 314 315 315 314 315 315 315
310 310 310 310 309 308 307 307 315 314 316 318 319 318 319 319 320 310 311 318 314 313 314 313 315 314 315 316 317 316 316 316 315 315 315 316 316 313 314 314 313 314 314 315 315
309 310 310 310 309 313 310 310 314 313 315 317 321 320 320 319 320 311 314 317 316 314 314 313 315 316 317 316 317 316 316 315 316 317 316 316 315 316 316 316 314 314 314 315 315
309 310 310 308 313 310 312 318 316 315 317 321 321 320 319 318 318 318 316 317 316 314 313 313 315 316 318 318 317 315 315 317 317 317 315 315 315 314 315 317 317 316 314 313 315
309 309 309 308 308 310 317 317 316 315 331 326 320 318 316 316 318 318 317 316 317 315 315 316 316 317 317 317 316 316 316 316 317 317 316 315 314 313 316 317 316 315 317 315 313
309 309 308 308 309 316 317 317 316 324 334 327 319 318 317 317 318 317 319 316 316 316 316 316 316 316 316 316 316 317 316 313 313 312 314 314 316 314 316 316 316 320 317 316 314
309 309 308 307 311 318 315 313 321 327 327 328 320 318 318 318 318 319 319 318 317 317 317 317 317 317 317 317 314 314 312 313 314 314 315 315 317 314 316 320 321 318 315 314 313
308 308 311 313 316 314 316 318 326 330 328 325 321 319 320 319 319 319 318 318 316 317 317 317 319 320 320 320 320 319 314 314 317 317 316 321 323 322 322 321 318 318 315 315 313
308 309 311 317 318 315 316 326 330 329 322 322 321 321 324 323 325 320 318 318 318 315 317 317 319 319 322 321 320 321 321 315 319 321 322 320 320 319 322 322 320 318 314 315 315
307 308 313 319 320 316 319 325 327 323 320 321 322 323 325 326 326 326 323 322 321 317 315 319 322 321 322 321 321 321 321 324 318 324 325 324 323 323 324 322 320 319 317 316 314
307 314 321 320 319 315 320 322 325 323 321 321 321 322 321 322 323 326 326 323 321 321 317 318 318 321 320 322 321 324 321 322 321 321 322 323 321 321 323 321 321 318 318 317 314
305 315 320 318 316 315 318 322 323 325 321 320 319 320 320 320 321 321 323 322 320 319 321 318 318 322 322 319 318 318 322 324 329 327 320 317 320 320 320 320 317 317 316 314 312
306 309 315 318 320 319 320 324 324 327 320 318 320 319 318 319 319 321 321 319 317 318 318 316 319 321 319 319 320 322 322 324 326 327 330 329 325 319 319 316 313 313 312 311 311
306 316 315 315 317 319 321 324 322 322 320 318 319 317 317 317 315 319 319 318 317 318 321 315 317 319 319 320 319 323 319 320 323 326 329 328 324 321 317 314 313 312 311 310 309
307 317 312 318 317 314 317 319 321 321 318 317 318 318 318 317 314 316 315 315 316 320 316 313 317 318 318 319 319 318 317 316 319 322 324 321 321 320 315 314 313 312 310 310 309
312 313 312 313 314 316 317 319 319 318 317 318 318 317 315 315 315 315 314 314 316 313 316 313 316 317 319 318 317 316 316 317 317 316 316 319 320 316 314 312 311 309 310 309 308
310 311 311 311 313 314 315 316 316 315 315 314 314 314 313 312 311 311 310 311 312 314 314 314 314 315 316 315 314 313 314 317 317 317 316 318 317 313 312 311 310 308 308 308 307

GFSSW_925_thetae_105.txt.gz
Theta_e
300 300 300 300 300 302 303 307 310 311 312 312 311 311 311 310 309 309 308 308 305 306 310 311 309 312 311 308 310 313 314 316 318 321 320 323 319 319 318 321 325 326 330 330 342
299 299 299 300 301 302 303 305 307 311 312 311 311 311 310 309 308 308 305 304 304 303 307 310 312 310 306 307 309 311 316 321 319 320 319 320 320 319 318 320 319 324 324 326 346
300 300 301 302 301 302 303 305 307 309 311 312 311 310 310 308 306 308 317 314 307 304 308 307 310 308 307 307 309 310 320 322 321 320 320 322 322 322 320 320 319 319 320 320 320
303 306 305 306 305 305 304 307 308 311 312 311 310 310 309 308 308 317 317 313 310 304 314 311 307 307 307 307 308 312 312 317 323 326 324 318 323 328 330 323 319 317 319 319 318
307 309 310 310 310 309 307 308 308 311 311 311 310 310 309 309 309 306 317 316 314 311 311 308 306 306 307 306 310 310 312 314 315 318 318 321 324 329 325 325 317 316 317 317 316
309 310 311 311 311 311 310 308 308 309 311 311 310 310 309 311 308 316 314 316 311 312 309 304 306 307 309 309 308 310 311 313 314 314 315 321 317 315 324 324 319 317 316 315 315
312 312 312 312 311 311 310 309 309 308 310 311 310 310 311 312 311 316 310 308 310 311 309 308 307 311 310 311 308 311 311 312 312 313 314 315 316 316 318 317 317 318 314 314 314
312 312 311 311 310 311 312 311 309 309 311 311 311 311 312 312 314 313 313 309 309 310 310 310 308 307 313 312 311 309 309 310 311 312 313 315 316 316 316 316 317 315 314 313 313
310 311 310 310 311 312 312 310 308 311 312 311 311 311 315 315 317 317 313 310 309 310 310 310 308 310 312 311 310 309 311 310 312 312 314 314 315 315 315 314 315 314 313 313 312
310 311 310 310 310 312 310 309 311 314 312 312 313 314 314 318 317 316 315 312 310 309 308 309 310 310 309 310 312 311 313 313 313 314 313 313 313 313 313 313 313 312 312 312 312
310 310 309 310 310 311 308 309 315 315 314 315 316 318 318 319 318 311 312 313 314 311 312 313 314 313 311 312 314 313 314 315 315 315 316 314 314 314 315 312 312 312 313 313 312
309 309 309 310 310 310 309 306 313 313 315 316 317 316 317 318 320 315 311 316 312 311 313 312 314 313 313 314 315 315 315 315 315 315 314 314 315 314 313 312 313 313 313 313 314
309 309 309 309 309 310 309 310 313 313 314 316 319 320 319 318 320 319 312 315 314 313 312 312 314 315 315 315 316 315 316 315 315 316 315 315 314 314 315 314 314 313 313 313 313
308 309 309 309 310 309 309 315 315 313 316 319 321 320 318 318 318 314 312 316 314 313 312 312 313 314 316 316 315 315 314 316 316 315 314 314 314 313 313 314 316 316 313 312 312
308 308 309 308 308 308 315 315 315 312 328 325 320 318 316 316 317 317 315 316 316 314 312 314 316 316 316 316 315 315 315 315 315 315 313 313 313 313 314 317 315 314 313 315 312
308 308 309 308 307 312 314 315 314 323 331 327 318 317 317 317 317 317 317 316 315 315 315 314 316 316 315 315 315 315 314 311 310 310 313 313 313 313 315 316 314 316 316 314 313
308 308 308 308 309 314 313 312 320 326 326 325 319 317 316 317 318 318 318 316 316 316 316 316 316 316 317 318 316 312 310 313 314 313 314 313 314 313 316 320 319 318 314 313 312
308 308 308 308 313 311 314 315 325 327 329 327 319 317 318 318 318 318 318 317 316 316 316 317 317 319 320 320 321 318 312 312 316 315 314 318 319 320 321 318 315 314 313 312 313
308 308 308 312 311 312 316 323 325 326 324 322 320 319 318 323 322 319 317 317 316 314 317 317 318 320 321 321 319 321 320 315 317 318 319 318 318 318 320 318 318 316 314 313 312
307 306 309 315 315 314 317 323 325 326 320 322 321 322 326 322 325 324 319 321 319 315 313 316 318 321 322 320 320 321 320 322 316 323 324 320 322 318 323 320 320 318 317 316 313
306 309 315 316 316 314 320 321 323 322 320 322 323 321 320 322 324 325 326 324 321 319 315 317 318 320 319 320 321 320 319 319 318 317 320 321 320 318 323 320 318 314 313 312 310
305 309 315 315 317 315 318 320 320 324 325 321 320 319 320 319 320 320 323 324 319 319 321 317 316 321 320 317 317 318 321 320 320 324 316 313 317 318 317 314 313 312 311 310 309
309 307 313 316 320 320 319 322 322 325 326 320 321 320 318 318 319 320 320 317 317 316 319 317 318 320 318 318 316 321 321 322 322 324 329 329 327 317 315 313 311 310 309 310 309
307 315 314 316 317 316 319 321 323 323 322 321 319 317 317 317 314 319 319 316 316 318 320 315 316 318 319 319 317 321 318 320 320 327 327 326 324 322 319 313 311 309 309 309 308
306 316 312 316 317 316 317 318 320 322 319 319 320 319 317 316 314 315 315 314 314 315 315 312 316 318 318 318 318 318 317 316 319 320 323 320 321 320 315 313 311 309 309 308 307
311 313 310 313 315 316 318 320 321 319 317 318 320 317 314 315 314 315 313 314 315 313 314 310 316 316 316 316 313 314 313 314 315 315 320 320 319 313 311 310 309 308 308 307 306
308 310 311 312 312 313 314 314 317 316 315 314 315 314 314 313 310 309 310 309 310 312 312 312 311 311 314 313 313 312 311 311 315 315 315 316 313 311 311 310 309 308 307 306 305

GFSSW_925_thetae_111.txt.gz
Theta_e
304 304 307 307 307 309 307 308 306 308 311 313 312 311 311 311 310 310 310 308 306 306 308 310 309 311 314 314 311 314 320 322 323 322 324 323 329 323 322 327 328 327 330 337 355
310 308 308 309 310 311 311 311 310 309 311 312 311 311 310 310 309 309 311 309 305 305 311 310 309 309 316 315 313 315 318 321 320 321 323 324 329 327 327 328 328 330 329 351 353
312 313 311 311 312 312 312 311 311 313 313 311 310 310 310 309 309 307 316 314 311 313 309 310 309 310 315 310 314 314 315 317 318 320 323 324 328 330 329 330 329 329 326 342 353
311 313 314 314 314 313 313 312 313 313 312 311 309 310 309 309 313 311 308 308 313 313 310 308 310 309 315 316 312 314 313 314 317 321 325 326 326 331 332 329 328 327 321 322 336
310 311 312 312 313 313 312 313 312 311 310 309 309 310 309 310 311 309 310 318 317 314 310 307 310 309 311 315 314 314 315 314 316 319 325 326 328 330 334 333 330 326 325 324 324
310 310 311 311 311 312 311 310 311 310 309 309 309 311 308 312 309 312 314 320 317 313 312 307 310 311 310 311 313 313 314 315 314 320 324 326 328 328 331 331 331 327 326 325 325
310 310 311 311 311 310 311 310 309 309 309 309 309 311 308 311 311 312 314 317 317 313 311 308 308 311 312 313 311 314 314 313 316 316 320 326 329 329 327 329 332 327 325 325 325
310 311 310 310 310 310 310 309 309 309 311 310 310 309 311 309 311 309 312 315 316 311 308 307 307 311 313 313 312 313 312 314 314 316 319 324 325 329 328 327 330 324 322 324 326
308 310 310 311 310 309 309 309 309 312 310 310 311 309 312 311 314 314 312 314 312 311 308 308 308 310 311 314 315 312 314 313 314 316 317 323 322 323 322 323 328 328 325 326 328
305 307 310 311 310 309 308 308 310 312 311 311 311 311 312 316 315 314 312 311 310 311 310 309 310 310 311 314 317 316 314 313 314 315 318 318 317 319 321 322 324 329 327 324 324
306 308 309 310 309 308 308 309 312 314 312 314 314 315 316 318 315 313 310 309 309 310 310 309 310 311 312 313 315 317 314 315 315 314 316 316 317 318 319 324 325 324 322 322 322
307 308 309 308 308 307 307 309 313 312 317 315 314 314 315 315 318 313 309 312 310 309 309 310 310 311 312 314 314 316 316 317 317 315 315 316 318 318 319 319 320 321 321 323 321
307 307 308 308 308 308 308 309 311 311 317 317 316 317 317 316 319 314 311 314 314 312 310 313 313 312 314 316 316 316 316 317 317 317 317 317 317 317 317 317 316 316 318 319 319
306 306 307 307 308 307 307 310 311 311 321 318 318 318 318 318 320 317 313 314 313 316 315 316 316 315 316 318 317 318 316 316 317 317 318 317 320 320 319 317 317 318 317 316 317
307 306 307 307 307 308 308 310 311 311 325 319 321 317 318 320 319 316 314 314 316 314 314 315 315 316 316 317 317 318 317 317 317 319 318 318 319 319 317 319 319 318 321 320 319
305 306 306 307 306 307 307 310 311 322 323 324 320 320 320 319 317 314 313 316 317 314 314 315 315 317 317 316 317 316 316 316 316 318 320 320 319 319 319 319 321 322 320 318 319
305 306 306 307 307 308 308 310 321 324 318 327 321 320 321 321 318 316 314 315 319 320 317 316 316 316 316 317 319 316 318 320 320 319 320 316 318 319 319 321 321 321 319 318 317
305 306 307 307 307 307 310 317 323 320 319 319 321 319 321 319 320 318 315 315 319 319 319 320 317 317 319 320 320 320 318 320 320 320 319 318 319 322 321 318 317 318 319 317 315
305 307 306 307 307 308 312 322 320 319 319 324 321 322 320 319 320 319 317 317 318 318 319 319 318 320 320 321 321 321 322 317 322 320 321 320 322 323 321 320 319 319 317 317 317
306 305 305 309 307 308 316 321 320 318 323 323 326 324 326 319 320 320 319 318 318 317 318 319 323 321 322 321 320 322 319 324 323 325 322 322 324 325 324 322 320 319 319 318 316
306 306 309 308 309 314 321 320 320 319 319 321 325 326 324 324 322 320 320 322 320 318 317 317 321 322 321 322 323 322 324 323 323 323 324 321 322 322 323 322 320 319 317 316 315
306 308 308 309 318 320 322 319 317 318 317 321 323 323 325 324 327 326 325 324 320 318 321 319 322 324 322 319 319 320 322 325 331 328 325 326 325 318 319 318 319 318 315 314 313
307 307 307 313 319 320 318 319 318 320 320 321 323 323 323 323 324 324 323 317 321 323 323 324 324 326 324 322 320 322 324 324 324 325 327 326 325 317 317 317 317 317 315 313 312
308 309 314 315 316 316 317 318 319 317 319 321 322 321 320 320 318 322 320 318 319 321 323 322 322 324 327 322 321 324 325 324 324 328 324 324 324 320 318 318 316 315 314 313 312
308 309 313 314 313 315 315 315 318 316 317 320 322 322 322 321 320 319 319 318 317 317 315 320 324 321 320 319 319 321 322 322 323 322 323 321 324 322 321 319 316 314 313 313 312
309 311 311 310 312 313 314 316 316 318 318 318 321 319 320 319 318 318 316 318 320 317 317 316 321 318 318 315 316 318 318 318 318 318 320 319 320 317 316 314 313 313 312 312 310
306 307 309 310 310 311 314 314 314 313 315 314 316 317 316 315 313 310 312 314 316 318 318 318 319 318 317 314 314 314 313 314 315 315 316 317 316 316 315 314 313 312 311 310 308

GFSSW_925_thetae_114.txt.gz
Theta_e
313 314 311 310 311 311 311 311 312 313 313 313 312 312 312 311 311 313 315 315 313 310 305 312 310 311 316 317 316 317 320 322 323 326 328 328 328 331 327 331 335 336 335 348 357
311 312 313 313 314 314 313 313 313 314 313 312 311 311 311 310 312 314 313 312 311 306 311 311 310 312 316 316 316 316 317 320 321 323 325 327 327 333 330 331 336 339 330 353 356
310 311 312 312 313 313 313 314 314 314 313 312 311 310 310 310 315 315 315 313 312 309 311 309 310 311 313 316 316 316 316 317 318 322 324 325 326 330 333 333 332 332 328 331 352
310 310 311 310 311 312 312 312 312 312 312 311 310 309 310 313 318 315 309 311 314 315 310 311 311 311 313 316 316 315 315 316 317 321 322 323 326 329 333 333 331 332 329 328 330
310 310 310 310 310 310 311 311 311 310 310 310 310 309 312 316 317 313 311 317 318 317 312 313 312 311 313 315 316 316 315 315 316 318 320 323 325 327 330 333 329 331 330 330 329
309 310 310 310 310 310 310 310 310 310 309 310 310 310 313 317 314 312 318 320 319 317 314 313 313 312 311 313 316 317 316 316 316 316 317 322 326 327 328 331 332 333 332 333 332
305 307 309 309 309 309 309 309 309 309 309 310 310 311 313 317 314 317 319 320 319 317 316 311 312 312 312 312 313 315 315 316 317 317 317 318 323 327 328 329 332 334 333 332 332
305 306 307 309 309 309 309 309 309 309 311 312 311 313 315 314 313 313 314 317 318 317 313 310 310 312 313 314 315 313 314 315 315 315 317 319 323 325 327 329 332 333 332 332 332
306 307 307 307 308 308 308 308 308 311 311 310 313 313 317 312 313 312 313 317 317 315 310 309 311 312 313 315 315 315 314 315 314 315 315 318 319 320 325 328 330 332 333 332 332
306 307 308 308 307 308 308 308 310 311 312 313 311 312 314 317 316 316 315 315 313 312 310 310 312 313 314 315 316 316 315 314 315 315 315 317 319 318 322 325 328 330 331 332 333
306 306 308 307 307 307 308 309 314 315 312 318 319 318 317 318 317 317 315 313 311 312 311 312 313 315 315 314 316 317 317 316 316 316 316 316 317 319 320 323 325 330 332 331 335
306 306 307 306 306 307 308 311 317 315 319 318 318 317 316 318 320 318 313 313 312 311 313 313 314 315 314 314 316 317 318 318 318 317 318 316 318 318 320 321 323 327 330 331 334
305 305 306 306 306 309 310 313 314 314 320 320 320 319 318 317 321 319 314 314 312 311 313 314 314 314 314 314 317 317 319 318 318 319 316 317 319 319 320 322 324 325 325 330 332
304 305 305 306 309 309 308 309 313 314 323 319 320 320 319 320 321 320 314 316 316 312 312 312 313 314 313 315 317 319 318 318 318 319 320 320 322 321 322 322 323 323 323 326 330
304 305 305 305 307 308 309 312 314 316 321 320 321 319 320 321 320 322 316 317 318 317 313 313 317 318 314 317 318 319 318 318 318 319 320 321 321 322 322 322 322 322 321 321 325
303 304 305 306 308 308 308 309 314 323 323 319 323 322 322 320 321 322 319 317 317 317 318 317 316 317 318 318 318 318 318 319 319 319 320 320 321 322 322 322 322 324 324 323 322
303 303 304 307 309 309 310 312 321 321 316 317 321 323 323 321 321 321 320 319 318 319 319 317 317 317 318 318 319 319 320 322 320 320 320 319 321 320 325 326 325 326 325 324 322
303 304 309 308 309 308 312 317 318 314 317 319 320 322 323 322 321 320 320 319 318 319 319 318 317 317 318 318 320 321 322 321 320 320 319 320 320 321 325 324 325 324 323 324 322
303 307 308 310 310 309 314 318 315 315 315 317 321 323 325 324 323 322 322 320 318 318 321 320 318 317 317 318 320 322 323 321 323 322 322 321 322 325 324 324 324 324 325 324 323
306 308 308 312 310 310 314 315 313 313 315 320 321 321 326 324 324 325 323 321 321 318 320 320 320 318 317 319 320 322 321 323 322 324 322 322 324 322 326 326 325 325 325 323 321
306 310 312 311 310 314 316 314 314 313 316 320 321 322 324 324 324 324 323 321 319 319 320 320 322 324 323 322 320 322 323 323 324 323 325 323 325 326 326 326 326 324 323 322 321
306 310 312 311 317 318 320 318 317 320 318 319 319 321 323 318 321 326 324 323 320 319 319 320 322 328 324 323 322 323 323 323 331 326 325 326 327 325 327 325 324 323 322 321 319
306 309 310 312 320 318 317 316 317 317 318 320 320 320 322 321 321 323 325 321 321 321 322 323 325 329 328 325 323 323 324 325 327 328 328 326 325 324 323 324 323 322 321 319 319
308 310 311 317 316 315 316 316 317 315 319 320 320 321 323 321 321 319 326 321 322 324 326 323 325 327 329 327 325 326 325 324 324 327 325 325 327 325 324 323 322 321 320 319 318
309 309 311 314 313 312 315 315 316 317 317 319 321 322 323 321 321 316 322 322 322 321 324 326 329 327 325 322 323 324 325 324 323 322 323 321 324 325 324 324 323 321 320 319 318
308 310 310 311 311 312 313 315 316 316 315 319 321 322 323 322 317 318 321 323 324 321 322 323 328 326 326 322 322 323 322 322 322 322 322 321 321 320 321 321 320 319 318 317 316
305 305 307 310 311 311 312 313 313 315 312 316 317 317 320 317 317 318 315 318 321 324 324 324 325 326 325 319 318 317 316 318 319 319 320 321 319 319 319 318 318 317 316 315 313

GFSSW_925_thetae_117.txt.gz
Theta_e
311 312 312 313 313 314 314 314 314 314 314 313 313 312 311 311 311 314 318 317 317 316 308 313 313 313 313 317 317 318 318 319 321 323 324 328 332 331 331 333 335 340 338 349 357
310 311 311 312 312 312 313 313 313 313 313 313 313 312 310 311 314 317 317 316 315 313 312 312 313 313 314 317 318 318 318 318 320 322 324 325 328 330 333 331 336 340 333 352 357
310 310 311 311 311 311 311 311 311 312 312 312 312 311 310 311 319 322 315 316 314 312 311 313 313 314 315 317 317 318 318 319 319 321 323 324 326 328 329 334 335 339 334 345 353
309 310 310 311 311 310 310 310 311 311 311 311 311 311 310 314 325 321 310 312 312 314 313 314 313 313 314 316 318 317 318 318 318 319 320 322 325 327 328 333 334 335 332 334 343
308 306 307 309 310 310 310 310 310 310 310 310 310 310 312 319 320 319 313 313 316 317 317 317 315 314 314 315 317 318 317 317 317 318 319 321 324 325 327 328 334 335 332 333 334
305 305 306 307 308 309 310 310 310 310 310 310 310 310 313 320 318 320 317 320 319 319 319 318 318 316 315 315 317 318 318 317 318 317 318 319 322 323 324 327 332 334 335 334 334
305 305 306 307 307 308 309 309 309 309 309 309 311 313 315 320 318 317 317 320 318 320 321 318 316 317 315 314 315 316 317 318 318 318 317 318 317 319 324 327 329 334 334 333 336
306 307 307 307 308 307 308 308 308 308 309 312 313 314 317 317 317 318 319 320 320 320 319 317 314 316 316 316 315 315 316 317 318 317 318 318 318 318 320 326 328 329 332 334 334
307 306 307 307 307 307 307 308 308 310 312 311 314 314 321 317 317 318 318 318 319 319 319 316 314 315 316 315 317 317 316 316 316 317 317 317 317 318 320 322 327 329 331 334 335
306 306 307 306 306 307 307 307 310 311 312 314 314 317 317 321 319 317 316 316 319 320 315 314 314 316 316 316 317 318 317 316 317 317 317 317 317 318 319 321 325 328 329 331 335
305 306 305 305 306 306 307 309 317 316 314 320 320 320 321 319 318 318 316 317 318 317 315 314 315 316 315 316 316 317 318 319 318 317 317 317 317 317 318 320 321 325 329 330 332
304 305 305 305 306 306 308 312 314 318 320 319 320 320 320 320 321 319 317 319 316 316 314 314 315 316 316 316 316 317 318 320 320 319 318 318 317 318 318 319 321 323 326 327 330
304 304 305 305 305 310 313 314 314 314 321 319 320 322 322 321 322 321 318 318 315 315 314 315 315 315 316 317 317 317 319 319 320 319 321 319 319 319 318 318 320 322 323 323 326
303 303 304 305 308 312 309 311 313 317 323 317 320 321 321 322 322 322 318 318 316 315 314 315 316 316 316 317 317 318 318 318 319 321 319 320 320 319 319 319 320 321 322 324 329
303 303 303 303 306 309 310 311 314 318 319 316 321 321 322 323 323 321 319 317 318 316 315 314 315 316 316 316 316 317 319 319 319 320 321 321 322 323 322 320 321 323 325 327 325
302 302 302 306 308 309 310 310 313 321 319 317 322 324 323 324 324 322 322 319 318 319 317 315 315 316 318 316 316 318 319 320 320 320 320 321 324 324 325 326 323 324 324 324 323
301 301 302 305 310 311 311 313 315 316 314 316 317 323 324 324 324 324 324 322 320 321 321 316 316 318 318 318 317 319 321 322 321 321 320 320 323 327 329 328 326 327 328 327 325
301 303 306 310 311 310 313 316 316 312 314 315 316 323 326 325 324 323 325 324 320 320 321 321 320 319 318 318 320 320 321 321 323 321 319 319 322 326 326 324 328 328 328 327 327
302 307 309 310 311 312 316 319 315 314 314 314 316 317 319 325 326 325 326 324 322 321 321 322 321 318 318 319 320 322 321 321 322 326 325 322 325 326 326 327 328 328 328 328 328
304 308 310 311 313 313 317 316 314 314 314 314 316 321 324 323 324 320 325 325 323 321 321 323 324 318 318 319 319 320 323 324 325 331 333 327 326 326 328 328 328 329 329 328 326
306 310 314 315 313 314 318 314 314 314 314 315 316 322 324 325 326 324 322 325 324 322 321 322 324 322 318 318 319 320 324 326 327 326 329 330 331 329 329 328 329 329 327 326 325
306 310 313 313 315 317 318 316 317 319 318 321 319 320 325 324 323 321 326 325 320 322 321 322 325 327 321 318 318 320 323 326 336 332 329 331 331 326 329 327 328 328 326 325 323
307 309 308 310 317 316 316 318 316 320 318 318 319 321 322 324 324 322 320 319 323 326 323 326 325 332 328 329 325 324 324 324 329 331 329 332 333 327 330 328 327 326 324 323 322
308 309 309 316 316 316 317 314 317 315 318 318 320 323 323 323 321 324 322 320 324 326 327 326 325 329 332 327 327 325 324 324 327 330 331 330 329 328 327 326 325 325 324 323 322
307 309 310 315 313 313 314 314 315 319 316 317 322 322 322 324 323 322 317 320 325 325 323 325 328 327 329 326 327 327 323 325 323 322 324 323 328 327 327 325 325 324 323 323 322
307 308 307 310 310 313 314 316 315 315 317 318 321 321 323 319 323 320 317 319 326 326 326 327 328 327 328 324 326 328 325 326 326 324 323 322 327 327 325 325 325 323 322 322 320
304 305 307 307 310 311 314 315 314 316 315 314 317 319 319 317 318 319 317 318 323 327 329 331 328 328 328 326 324 325 325 324 323 321 321 321 321 323 323 322 322 320 320 319 318

GFSSW_925_thetae_123.txt.gz
Theta_e
309 310 310 311 311 311 311 311 311 312 312 312 312 313 313 313 312 312 313 314 317 317 315 314 315 311 309 309 310 312 312 313 314 316 317 317 319 321 325 328 332 333 354 355 350
307 308 308 307 307 309 310 310 310 311 311 311 312 312 312 312 312 313 310 311 312 318 318 318 316 311 309 309 309 310 312 313 314 315 315 316 316 318 321 332 330 333 356 354 351
306 307 309 309 309 309 308 308 310 311 311 311 310 311 311 311 313 313 317 318 316 317 319 316 315 311 310 310 309 310 312 314 315 315 316 316 316 317 318 320 328 328 352 351 347
308 308 309 309 309 308 308 308 309 310 310 310 310 310 310 311 313 317 315 316 320 318 319 317 314 310 309 310 310 310 312 314 315 316 316 316 316 318 317 318 320 326 344 345 344
307 307 308 308 308 308 308 308 308 308 309 309 309 310 311 314 314 312 315 316 321 322 319 316 313 311 310 310 310 311 311 314 315 316 315 315 316 316 316 317 319 331 339 341 340
307 307 307 307 306 307 308 307 307 307 308 309 309 310 312 313 310 313 314 317 316 317 317 315 312 311 311 311 309 311 312 313 314 314 315 316 316 315 316 316 320 327 333 339 338
307 307 305 306 305 307 307 306 306 307 308 309 309 310 311 311 312 316 316 317 316 315 317 315 314 314 313 311 311 311 311 312 313 314 314 315 314 315 316 316 318 321 324 331 342
306 304 304 304 305 305 306 306 306 306 308 309 310 312 314 311 312 313 314 315 319 317 317 318 318 318 316 315 316 314 311 310 311 314 315 315 315 315 315 315 316 320 321 331 331
304 303 304 304 304 304 304 304 305 305 309 311 312 314 314 315 316 316 315 318 320 321 319 319 319 317 317 316 314 313 313 311 312 313 314 315 315 315 315 316 315 315 316 318 328
304 304 304 303 303 304 303 304 303 308 310 312 313 316 315 315 317 319 318 318 319 320 321 321 318 318 317 314 315 314 312 312 312 313 313 312 315 315 315 316 315 316 316 315 316
304 303 303 303 303 303 305 305 309 312 313 317 317 317 316 316 318 319 318 319 319 320 321 320 320 320 319 316 314 315 314 313 314 315 313 313 313 314 314 314 314 314 315 316 315
304 303 303 302 302 302 304 304 309 310 314 314 316 317 316 317 319 318 319 320 321 323 321 321 322 319 318 317 314 314 315 314 315 316 314 314 314 315 314 314 314 314 314 314 316
301 301 302 302 301 306 306 309 312 314 316 314 314 316 316 317 320 319 320 320 322 322 321 321 321 320 317 316 315 314 314 315 315 317 319 318 317 318 317 316 315 314 314 314 315
300 300 302 303 303 305 303 305 310 311 315 313 313 315 314 316 318 318 318 320 322 323 319 320 320 319 315 315 314 314 315 316 316 316 317 318 317 318 319 317 317 315 313 314 315
300 301 302 303 302 302 304 306 309 311 317 313 315 316 315 317 319 319 318 321 323 322 319 320 321 320 315 314 314 315 316 315 316 315 318 317 316 316 319 321 321 325 323 322 314
299 299 301 302 303 304 304 306 308 315 316 312 314 314 317 315 317 320 319 320 319 320 320 320 318 317 316 315 315 315 315 315 314 314 316 316 317 316 317 319 326 328 322 324 322
299 299 300 302 303 303 305 307 314 317 310 312 312 312 318 323 322 324 324 321 320 321 321 320 319 317 316 314 315 314 314 315 316 316 317 317 318 317 325 328 329 329 324 323 323
299 300 303 304 304 306 306 313 317 314 312 311 312 313 314 321 324 322 321 328 320 320 321 322 320 317 317 315 315 314 314 314 318 320 319 320 320 318 328 328 328 326 326 327 323
300 303 304 308 311 309 311 314 312 312 312 312 314 315 316 316 323 324 324 325 325 323 323 321 320 318 317 315 315 315 315 314 316 323 323 322 329 328 326 326 325 327 327 327 328
303 304 306 307 308 308 313 315 314 312 313 312 314 315 316 316 322 323 325 324 327 324 323 326 327 321 317 315 314 315 315 315 315 325 325 322 328 332 328 326 325 327 327 326 325
303 304 305 307 307 311 311 311 312 312 313 315 317 319 320 323 322 322 324 324 327 325 324 327 326 327 325 323 315 315 315 316 321 325 324 327 336 331 334 333 328 328 327 323 321
303 305 304 305 307 308 311 309 310 313 314 313 315 318 318 319 323 324 323 324 323 324 326 325 326 327 326 324 322 316 316 321 326 330 332 328 331 328 329 327 327 331 328 321 319
303 304 307 306 307 308 308 310 312 312 312 316 316 317 317 321 324 324 323 323 322 322 326 325 328 329 328 326 324 317 318 320 327 328 332 332 331 328 328 327 327 328 326 322 319
304 307 305 307 304 308 310 312 312 308 311 315 318 318 318 320 322 325 323 322 321 320 321 325 327 328 327 327 323 319 319 323 324 329 331 331 332 331 328 329 328 327 328 321 320
305 307 306 306 306 306 309 310 311 313 311 314 316 317 317 318 321 322 324 323 321 321 323 325 330 328 328 329 328 323 319 327 327 326 328 329 331 328 325 327 327 327 323 320 319
305 304 305 305 304 307 309 310 313 312 314 314 313 314 318 320 323 324 323 322 322 322 322 326 329 325 329 327 328 328 326 328 328 328 328 323 329 325 324 324 326 327 321 319 318
302 303 305 304 305 307 309 310 311 311 312 313 313 315 314 315 315 315 318 319 321 323 325 325 330 327 327 327 327 330 329 329 327 329 327 331 329 325 326 323 322 323 320 316 314